GFSGL_925_rhum_000.txt.gz
RH
40 44 42 37 36 40 41 41 40 42 43 44 47 49 49 49 50 51 52 52 52 50 46 46 48 48 51 45 42 42 41 41 44 41 37 41 67 90 90 99 100 100 98
39 44 42 39 42 43 41 43 44 46 48 51 51 50 49 47 47 49 52 52 53 53 52 50 47 47 49 50 47 44 42 39 40 45 41 43 60 70 96 76 83 98 100
40 40 41 44 43 43 44 44 45 49 50 48 45 44 44 45 48 51 55 57 58 58 58 56 54 51 51 51 48 47 45 43 40 42 43 42 48 69 99 99 97 89 99
38 37 40 44 47 48 47 47 49 51 48 43 42 44 46 50 53 56 58 60 62 66 71 76 75 69 69 61 52 50 49 49 47 44 41 40 44 64 99 99 100 100 98
39 38 37 48 51 48 46 49 49 45 41 41 42 44 48 54 58 58 62 65 70 75 79 82 79 77 79 82 81 69 57 56 54 48 47 46 45 56 94 98 100 100 100
41 38 44 50 47 45 46 47 41 37 37 40 42 46 54 59 60 70 79 85 86 86 87 82 82 82 83 84 80 85 100 94 74 58 51 48 44 49 68 98 99 100 99
39 42 46 47 47 45 45 39 35 37 39 41 46 55 61 64 69 78 83 92 95 91 88 85 79 76 75 77 88 87 81 84 86 88 75 49 43 42 50 92 99 95 95
41 46 45 46 46 45 40 35 36 39 42 48 58 64 66 70 77 84 88 95 96 94 92 88 85 82 78 75 76 85 85 85 81 78 70 73 47 42 44 81 94 99 99
43 44 45 48 47 41 36 37 40 45 51 60 65 68 74 81 86 90 93 96 96 94 89 89 89 90 89 83 85 84 79 90 95 92 82 68 60 60 77 72 100 98 99
44 47 49 48 43 38 37 40 44 48 58 69 78 84 85 91 93 97 98 98 97 93 88 87 88 92 92 93 93 93 93 82 81 98 99 95 78 71 88 93 99 97 94
51 51 49 46 41 40 41 43 47 61 75 85 88 90 91 94 96 98 100 99 97 96 90 85 87 93 96 97 98 96 89 75 75 89 87 94 93 76 76 98 100 96 94
52 50 48 45 44 41 43 49 60 68 74 81 85 84 80 86 98 97 97 97 98 99 94 92 96 97 97 99 99 98 96 86 82 99 85 94 98 88 71 78 98 100 93
52 51 50 47 41 42 48 60 65 63 72 81 83 81 81 84 88 94 92 96 96 98 96 96 99 99 99 98 99 98 99 96 95 87 97 80 88 87 82 80 100 100 100
55 56 54 45 48 50 57 60 64 70 80 79 82 86 86 83 89 92 90 92 96 94 96 93 96 96 98 98 99 100 99 98 95 86 76 80 82 100 100 99 100 100 97
62 62 51 48 56 62 63 68 72 75 87 95 92 93 94 90 93 99 97 95 95 95 97 97 94 93 92 95 98 99 98 99 98 96 99 98 96 100 100 99 100 99 90
68 61 57 64 66 64 66 69 70 77 84 92 98 97 96 97 96 97 97 97 98 90 92 91 91 92 88 89 94 98 98 98 95 98 95 92 91 94 98 99 98 95 92
86 74 62 64 66 66 72 75 75 74 77 91 98 98 98 97 96 99 99 97 87 83 85 88 89 89 89 91 92 94 94 98 98 99 97 97 96 93 94 94 95 96 96
87 75 74 70 71 74 80 82 81 82 82 78 89 98 97 96 98 100 96 81 71 77 76 81 91 92 89 91 93 93 96 96 96 96 96 96 97 93 93 91 93 91 92
63 62 81 78 78 83 81 80 79 80 80 84 87 88 96 97 97 96 96 82 73 68 71 88 90 78 88 94 96 96 97 97 96 96 96 94 96 93 94 94 95 96 95
57 75 81 77 76 73 72 78 79 81 81 87 89 92 96 93 90 93 96 96 93 93 95 88 85 93 92 85 87 91 95 96 96 92 94 95 95 95 95 96 95 94 89
61 66 81 72 73 75 73 75 82 84 84 88 93 96 98 94 94 94 95 95 95 94 96 96 97 87 80 80 84 88 89 88 84 88 93 95 96 94 96 95 93 90 78
76 77 77 78 76 77 77 76 84 87 84 88 93 95 98 96 95 95 96 97 98 99 99 98 97 98 98 98 95 90 88 86 85 86 88 87 84 84 85 83 81 80 79
85 86 80 74 80 81 77 78 82 88 88 89 93 94 95 96 97 97 98 98 99 99 100 100 99 99 99 99 99 99 97 98 98 98 97 95 91 88 84 81 79 76 73
90 91 80 79 82 80 81 83 82 84 90 90 92 94 95 96 97 98 99 100 100 100 100 100 100 100 100 100 100 100 99 99 97 97 97 97 96 96 92 90 87 86 82
96 92 89 85 83 83 82 83 85 84 87 92 93 94 95 97 97 98 100 100 100 100 100 100 100 100 100 100 100 99 97 99 100 100 97 94 92 88 83 81 80 80 82
94 92 90 87 84 84 84 83 86 86 86 89 93 95 96 96 97 99 100 100 100 100 100 100 100 98 97 96 92 89 88 85 87 99 97 91 87 86 85 85 82 82 82

GFSGL_925_rhum_003.txt.gz
RH
31 41 42 41 39 38 38 37 39 40 39 38 37 37 38 40 42 42 42 44 46 46 47 48 48 47 47 46 47 52 53 46 45 40 37 34 34 61 89 81 94 92 88
36 40 42 41 37 38 40 39 40 42 41 40 40 40 40 40 40 40 41 41 42 43 44 45 46 46 45 46 47 52 54 50 42 46 39 36 36 38 41 62 90 56 82
36 39 40 38 41 42 41 41 42 41 40 40 40 40 40 39 39 41 42 43 45 46 48 50 52 51 51 50 49 50 53 51 46 44 41 38 36 36 42 55 87 94 72
34 35 40 44 42 41 43 45 43 42 42 41 40 38 39 41 42 42 42 45 49 53 57 62 63 62 63 63 64 64 55 54 53 48 45 43 41 37 38 53 99 100 100
39 43 51 46 44 45 45 44 44 43 42 39 37 38 40 42 42 42 48 54 58 63 67 72 77 78 76 77 78 78 80 71 60 55 52 51 49 44 41 51 83 89 99
49 54 46 44 45 44 43 44 41 38 36 36 38 40 41 43 45 55 65 68 75 81 88 82 76 76 78 81 83 81 80 83 88 92 71 59 55 50 44 44 73 99 94
51 48 45 44 44 44 43 41 37 35 36 39 40 42 46 52 57 65 73 78 86 92 90 91 86 76 76 79 79 82 85 82 75 76 86 89 63 52 47 44 69 93 84
53 44 40 40 42 44 42 36 35 37 39 41 44 49 56 63 69 78 86 92 96 95 93 92 91 90 87 83 88 90 80 84 84 83 78 76 81 70 77 72 66 92 98
38 38 39 41 45 41 36 36 39 41 43 45 51 63 72 78 81 86 93 99 97 96 91 90 91 94 94 90 98 97 96 97 89 81 85 74 66 65 68 83 98 98 100
38 40 42 43 40 37 39 41 41 41 44 57 71 76 80 85 85 92 97 99 98 97 95 92 91 93 97 97 99 97 95 90 81 77 97 87 88 69 63 74 99 95 92
42 44 43 40 38 41 41 40 40 46 60 75 83 83 82 87 90 95 97 98 97 95 91 92 97 98 98 96 96 99 96 88 81 78 95 99 98 86 77 74 89 100 98
44 44 41 42 45 43 40 40 47 54 61 76 79 80 77 79 81 80 97 97 97 98 96 95 96 98 97 96 95 97 98 98 97 98 95 92 88 99 84 72 77 97 100
46 44 45 49 48 41 41 47 51 51 67 77 82 80 78 79 78 82 97 96 97 98 98 97 95 97 98 96 95 97 98 99 98 96 97 84 77 72 77 70 73 88 99
46 50 54 53 46 45 49 49 50 62 75 75 80 83 85 83 81 89 97 97 95 95 97 94 92 94 98 98 100 100 100 98 98 95 86 96 78 76 83 78 99 100 99
54 58 58 53 52 54 55 54 58 70 86 86 86 94 95 91 91 99 98 96 98 97 97 98 93 88 92 90 97 99 100 99 98 96 87 78 100 98 96 100 100 100 96
66 66 70 58 57 58 55 56 62 75 80 82 97 98 96 98 96 96 96 97 99 96 96 92 88 89 89 92 96 97 95 93 90 92 99 97 99 99 99 99 100 98 95
91 83 66 62 60 59 60 63 80 80 77 82 98 98 98 97 96 96 96 96 94 89 90 89 89 92 92 91 94 92 98 98 98 100 99 99 98 94 94 96 98 97 96
99 79 64 66 67 67 69 76 85 82 86 83 90 97 98 96 96 98 96 88 87 88 89 92 94 92 90 92 93 97 98 99 99 99 99 99 95 90 93 92 96 93 95
74 64 78 76 74 72 71 69 71 80 77 88 85 88 96 96 96 96 97 95 94 92 93 92 94 93 93 94 94 97 98 98 98 98 98 98 99 98 96 96 95 96 95
55 59 71 70 70 65 65 65 70 80 79 90 88 93 95 95 93 95 96 96 96 96 96 96 97 97 97 94 96 96 96 97 98 97 98 98 98 98 95 94 93 90 90
59 63 74 69 68 67 66 64 74 83 83 89 92 98 97 96 95 96 96 97 97 97 98 97 97 97 98 98 97 94 96 97 97 98 94 96 96 96 98 98 98 94 84
73 75 72 71 69 71 69 69 81 91 89 89 93 96 96 97 96 96 97 97 97 97 95 97 97 97 97 97 97 98 97 96 94 93 95 96 97 96 96 96 96 96 96
82 83 80 70 74 72 72 77 82 81 90 93 95 95 96 96 97 97 98 98 97 96 96 95 96 96 96 96 96 98 98 97 96 96 96 96 96 97 96 95 93 93 85
81 86 80 72 75 75 77 79 85 86 86 93 93 95 96 97 97 98 98 99 99 97 97 97 97 97 98 99 98 96 97 96 96 95 95 96 97 98 97 97 96 94 96
92 88 80 81 79 79 79 80 83 86 88 91 93 95 95 97 97 98 99 98 98 98 98 100 100 100 100 100 100 97 95 96 97 95 95 96 98 98 97 97 97 97 97
94 89 83 84 81 79 78 82 81 80 90 86 92 95 96 96 97 98 98 96 95 94 97 97 99 96 83 74 82 85 83 90 98 99 94 87 86 85 82 82 80 80 78

GFSGL_925_rhum_006.txt.gz
RH
36 37 38 45 44 42 42 42 49 48 55 50 42 42 41 41 41 42 44 45 47 47 48 50 51 51 52 52 52 53 53 52 61 56 54 51 43 38 35 42 54 63 65
36 38 46 44 42 41 40 44 54 48 53 44 42 42 42 42 42 43 44 44 46 46 47 48 49 49 50 52 52 53 53 52 56 63 59 58 49 41 36 33 40 57 61
35 39 43 44 41 39 49 55 62 50 44 44 44 43 44 44 43 43 44 45 46 47 48 50 51 53 54 56 56 58 57 56 55 59 61 58 54 46 42 36 34 43 57
35 36 41 39 40 46 48 51 51 46 46 46 45 44 42 42 43 44 44 45 46 48 52 56 62 67 71 71 70 68 67 68 70 76 67 61 58 51 45 43 42 37 53
34 34 38 54 58 63 49 48 46 47 47 45 42 40 41 44 44 42 44 51 58 62 65 68 70 72 72 75 80 80 76 74 76 88 82 75 64 58 53 49 51 50 60
40 62 81 78 55 50 48 45 46 46 43 39 40 42 45 46 46 48 55 68 73 76 78 79 78 77 76 74 76 79 80 82 80 90 90 97 89 76 58 55 55 66 85
88 86 78 75 50 45 45 45 46 42 40 41 43 46 48 51 56 63 73 81 85 85 86 87 88 84 79 82 82 82 85 83 84 83 76 72 81 84 88 82 84 89 85
84 82 68 46 42 42 45 46 40 40 43 45 47 49 56 68 72 74 70 80 89 95 96 96 94 92 91 89 89 95 97 96 89 90 90 81 74 70 74 84 100 98 96
61 43 40 41 42 45 43 39 42 45 45 47 52 63 70 76 80 78 82 93 99 100 98 96 96 94 92 91 97 99 99 95 88 92 91 88 80 73 69 69 92 97 99
41 41 40 43 43 40 40 42 43 44 45 54 62 77 83 78 78 83 89 99 99 99 90 94 89 89 97 98 99 99 97 94 96 89 86 85 88 86 80 80 77 82 98
40 41 44 43 39 41 44 45 43 45 52 58 76 79 77 81 81 85 83 96 98 97 97 94 90 88 89 97 99 99 97 92 91 88 87 85 82 91 90 87 87 76 89
43 44 45 42 46 49 46 44 47 52 56 70 76 83 78 76 81 82 97 98 97 99 98 98 98 96 97 96 97 99 98 98 100 99 99 95 95 92 90 94 83 75 79
44 45 47 52 54 48 48 50 54 56 66 77 87 80 80 83 87 86 87 96 96 98 98 98 98 98 93 93 94 89 93 98 98 97 96 97 90 88 98 97 85 77 86
50 52 56 58 56 55 55 56 56 63 77 91 84 87 89 92 86 90 99 100 98 99 98 97 96 98 98 98 99 99 100 99 97 95 97 91 87 98 92 98 100 100 100
57 62 63 69 64 59 61 58 58 70 75 83 92 99 97 94 95 99 99 99 98 98 96 92 94 94 92 93 97 100 93 99 98 98 98 95 98 96 99 100 100 100 95
78 78 84 71 68 65 64 65 66 70 75 78 87 98 96 98 97 97 97 97 94 96 95 96 94 93 97 97 97 99 97 98 97 96 95 96 99 99 100 99 99 96 97
96 92 80 71 70 71 72 72 79 81 78 80 91 98 98 99 96 97 97 96 98 92 89 89 93 97 94 97 98 98 99 99 96 92 89 99 97 98 99 100 100 98 98
89 86 74 77 78 79 76 78 74 82 86 84 90 94 98 98 96 97 97 95 92 93 97 97 97 94 98 97 99 99 98 98 98 99 99 100 91 91 96 98 98 98 97
81 76 69 75 76 75 72 70 71 82 86 88 92 90 93 96 96 97 97 97 97 97 97 96 99 98 98 99 99 99 100 100 98 97 97 98 98 95 95 97 99 99 97
67 64 68 72 80 73 73 71 73 82 90 94 95 98 97 96 95 97 96 97 97 98 99 98 99 100 98 98 100 100 100 99 99 100 99 97 98 97 98 98 98 98 98
77 75 75 77 77 76 79 72 83 84 94 96 97 96 96 97 96 97 97 97 98 98 98 100 100 100 99 98 98 97 97 100 100 99 96 97 95 97 97 96 96 96 96
82 85 87 81 81 81 78 87 82 86 90 96 96 95 94 96 97 97 97 97 96 97 97 97 97 97 99 100 98 96 98 98 95 96 97 96 96 96 96 97 97 97 97
90 89 85 85 88 80 82 79 85 89 88 95 95 95 95 96 96 96 96 97 96 96 96 97 95 95 95 96 96 97 98 98 98 96 97 96 96 96 96 96 96 97 97
96 94 93 86 87 88 86 82 85 86 94 91 94 95 95 95 96 96 96 95 96 96 96 94 96 95 95 95 96 96 96 97 96 96 95 96 97 96 96 97 97 96 96
96 94 93 92 88 88 84 84 88 82 92 90 92 94 95 95 95 95 95 95 95 96 90 92 74 64 73 84 88 92 93 96 98 96 92 92 94 95 95 95 95 95 95
94 96 93 90 91 89 83 86 86 88 91 95 93 92 94 95 95 95 95 95 95 94 95 95 73 56 47 51 66 80 85 89 93 95 92 88 90 88 88 85 81 83 83

GFSGL_925_rhum_009.txt.gz
RH
34 37 39 44 45 40 43 44 49 53 60 68 65 58 56 43 39 42 43 43 44 45 45 46 48 52 56 58 59 59 59 58 64 58 55 53 53 52 51 47 43 35 41
37 41 45 45 43 41 42 44 51 55 55 64 55 48 41 44 45 46 46 44 44 48 46 49 49 51 51 55 57 59 59 59 61 64 58 57 57 56 56 54 50 42 37
37 42 44 44 42 40 45 48 52 54 59 52 47 46 47 46 45 43 41 42 44 45 46 48 52 53 56 58 62 67 66 67 68 75 76 75 74 67 61 57 52 45 42
37 40 42 42 43 46 53 56 55 54 52 47 47 45 46 42 40 43 46 46 49 54 56 58 60 61 64 67 71 73 76 77 76 74 73 68 71 72 68 64 59 50 44
37 44 64 67 65 65 64 55 51 49 45 45 46 43 39 42 45 46 52 58 65 67 67 68 70 70 72 74 75 72 73 76 78 77 76 72 68 75 77 74 66 54 49
73 79 78 80 81 80 75 68 57 45 47 44 40 43 44 45 51 57 65 72 75 79 83 80 78 78 79 80 80 80 82 83 82 80 78 78 78 78 95 98 100 87 93
82 85 88 87 87 81 73 49 45 47 41 42 44 44 46 58 60 61 65 72 82 88 87 85 87 88 86 86 86 84 85 86 86 90 89 84 79 76 78 92 88 99 96
94 83 76 72 72 48 44 46 44 42 43 43 44 53 58 58 63 64 76 84 89 89 89 92 97 97 94 97 95 94 92 90 91 89 93 93 90 85 77 73 74 89 99
76 71 63 43 42 44 44 42 42 43 43 46 53 52 64 73 64 74 81 94 99 99 100 100 98 99 94 98 98 99 99 96 93 92 92 90 90 93 88 83 84 81 83
46 42 42 44 44 42 43 45 46 46 46 50 53 76 64 74 69 76 85 95 99 98 93 93 92 93 94 95 100 99 97 93 93 97 97 94 93 96 94 97 99 95 83
41 43 44 45 45 49 51 48 46 49 52 60 69 66 79 78 75 83 87 97 99 98 97 96 93 96 97 98 98 99 97 97 96 97 97 95 96 91 90 90 99 99 98
44 45 47 49 52 55 51 51 53 56 63 70 80 84 79 80 86 93 94 96 97 99 98 99 100 98 97 98 98 99 98 98 99 99 98 97 96 98 93 95 87 91 94
49 51 53 55 60 59 56 57 59 61 74 78 85 91 91 91 95 92 93 99 95 99 100 98 98 96 97 96 94 96 99 100 99 98 93 98 95 90 91 96 99 98 96
54 60 64 71 70 61 62 63 62 69 71 82 88 95 97 98 91 95 100 100 98 98 96 94 88 86 88 92 92 95 99 99 99 97 95 96 97 94 99 96 100 100 99
61 72 81 75 67 68 68 68 69 63 75 84 91 99 98 95 97 99 99 99 98 95 84 85 92 94 95 97 97 100 96 96 100 98 97 98 99 98 98 99 100 99 98
74 84 88 73 74 72 75 74 66 76 76 74 93 98 95 99 97 98 98 97 99 95 91 93 97 98 97 97 97 98 100 99 98 96 99 98 97 98 98 99 100 99 97
82 92 81 84 70 74 80 79 82 82 63 74 96 99 100 99 98 99 97 99 96 91 96 97 98 99 99 98 98 99 98 100 100 98 96 100 100 100 99 99 99 98 99
79 81 81 74 69 75 81 77 74 82 84 90 94 97 98 99 99 99 98 94 93 93 99 98 98 99 100 99 100 100 99 97 98 100 99 98 98 97 98 98 98 98 98
80 76 84 71 73 78 77 73 75 80 82 95 96 90 93 98 98 98 99 98 97 98 100 98 99 100 100 100 98 98 100 100 99 97 97 98 99 91 96 95 96 96 97
82 88 88 80 81 84 82 69 88 83 88 96 96 98 95 93 96 96 96 97 97 98 100 100 100 100 100 100 100 99 100 100 99 97 97 96 98 99 100 99 100 98 97
84 88 80 79 91 87 79 91 88 87 86 96 96 96 95 96 97 97 97 97 97 98 98 97 97 100 99 97 98 99 99 100 100 97 96 96 96 96 97 98 97 96 97
89 97 78 80 97 84 82 77 84 89 89 94 96 95 95 95 96 96 96 96 96 96 96 98 100 98 100 99 98 95 99 98 98 96 96 96 95 95 96 96 96 96 96
88 99 91 89 88 84 91 82 91 92 90 88 95 95 95 96 95 96 95 96 95 96 95 94 95 96 96 97 98 98 98 99 99 96 96 96 96 96 95 96 96 96 96
89 94 92 98 85 85 86 94 91 93 95 88 90 95 95 95 95 95 96 96 95 81 74 62 66 79 89 93 96 97 97 98 97 98 94 95 95 94 95 95 96 96 95
99 95 98 95 92 94 83 90 90 91 97 96 88 94 96 95 95 95 96 96 94 93 69 59 48 51 67 82 89 92 95 96 96 93 90 90 94 94 94 95 95 96 96
90 89 94 93 95 87 85 89 93 78 97 89 95 89 91 96 96 94 95 92 95 93 72 56 50 44 49 68 79 81 86 87 89 86 82 84 80 77 86 88 83 89 94

GFSGL_925_rhum_012.txt.gz
RH
39 37 40 45 45 45 43 44 46 51 59 76 76 60 54 51 46 45 47 48 49 49 49 49 50 48 52 55 56 58 64 67 75 64 62 60 60 58 54 51 51 50 45
41 40 46 46 44 44 44 48 51 53 53 56 59 55 50 47 50 50 48 46 44 43 44 47 50 54 54 55 57 59 62 60 66 68 63 63 64 66 70 70 65 60 56
44 43 46 45 43 43 45 50 54 55 54 51 50 50 49 48 47 47 42 42 45 46 50 57 59 61 64 67 69 72 73 75 75 79 77 75 73 70 70 66 61 58 59
43 52 51 49 47 51 56 56 57 55 52 49 48 48 48 46 42 44 46 50 56 60 61 61 62 64 67 70 71 70 72 73 73 75 76 75 73 70 68 72 79 69 61
56 49 60 68 68 65 64 68 77 75 56 50 49 46 42 44 45 51 55 62 66 64 63 68 71 73 79 79 81 79 78 78 76 74 74 72 69 68 76 74 82 85 80
73 77 83 91 84 95 97 72 75 63 56 48 42 44 44 45 52 60 59 62 64 69 80 84 83 83 75 72 73 73 84 89 87 83 79 80 80 80 79 82 85 96 91
93 96 98 98 91 68 70 76 68 54 44 43 43 44 49 56 55 60 72 64 79 88 90 92 92 92 91 90 89 88 88 90 92 92 90 88 88 88 82 89 87 90 84
86 85 83 84 85 77 65 53 45 43 44 46 47 50 55 60 70 64 63 76 86 90 94 98 99 97 97 97 97 98 95 98 98 94 94 96 93 95 93 86 84 84 80
88 77 58 48 46 46 43 44 47 48 47 47 53 62 72 63 65 72 84 88 93 100 96 95 98 95 94 88 92 98 99 99 92 96 95 92 92 97 98 98 98 98 93
44 50 50 45 45 47 51 52 49 49 53 57 66 64 63 62 62 77 88 94 100 99 98 97 96 97 98 97 99 99 97 94 95 95 97 93 97 99 98 99 99 95 93
44 47 49 50 52 55 54 54 54 56 60 65 66 64 62 68 73 80 91 98 100 99 98 96 98 95 100 99 98 99 98 96 96 99 98 98 99 99 95 98 100 99 97
47 50 53 56 60 60 60 58 60 64 70 67 64 71 73 75 81 92 92 93 98 99 99 100 99 98 95 97 97 98 98 98 100 100 99 95 94 96 98 94 94 97 100
50 55 60 66 71 65 62 67 68 68 66 74 80 90 90 89 94 91 90 100 98 99 96 95 92 92 91 87 93 99 98 100 100 98 95 92 95 95 94 94 89 92 98
58 62 74 78 69 69 71 71 71 67 76 85 91 97 98 95 92 90 98 98 94 91 79 77 84 82 90 96 96 96 98 98 99 98 98 96 97 98 99 92 100 98 100
63 70 78 74 74 69 73 77 73 75 82 87 88 98 100 96 97 98 98 98 98 98 92 91 90 94 96 96 97 98 96 97 97 100 98 97 97 97 100 97 100 100 99
72 72 78 78 81 68 76 81 74 78 68 76 95 98 92 99 97 98 98 96 100 96 93 99 98 97 97 98 98 98 97 99 98 95 95 94 95 100 100 98 96 99 98
75 79 84 85 74 74 80 83 84 81 66 80 95 98 98 99 99 99 98 98 100 89 98 98 100 98 98 99 100 100 98 98 99 99 99 98 99 100 99 99 98 98 98
84 82 86 97 85 80 81 79 76 86 91 90 89 96 100 99 99 99 100 93 92 91 99 98 100 100 100 99 99 100 100 99 97 98 99 100 100 98 98 100 99 97 97
82 87 87 94 95 93 88 77 89 84 85 97 89 87 92 99 98 99 98 95 97 97 98 98 99 100 100 100 100 100 100 100 99 97 96 97 100 99 100 100 98 97 97
87 94 94 87 88 95 84 90 88 87 86 98 96 99 92 92 96 96 94 95 96 98 96 96 98 100 100 100 99 99 100 100 100 100 96 97 97 97 94 96 97 96 97
91 88 86 82 89 95 85 87 90 90 90 96 97 97 96 95 96 96 96 96 96 96 97 96 98 99 100 99 96 97 100 100 99 98 98 96 96 96 97 97 97 96 96
92 94 98 93 90 88 92 84 92 93 87 94 97 94 94 94 95 96 96 95 96 96 97 97 96 96 98 100 100 98 97 99 100 97 95 96 96 96 97 97 96 97 96
92 95 94 94 95 90 88 93 94 97 89 91 94 92 93 95 96 96 96 96 92 75 66 74 90 95 97 99 100 100 99 100 100 96 92 94 94 96 94 97 96 97 96
97 97 96 94 91 97 91 92 90 95 97 89 95 93 94 95 95 96 96 94 85 57 51 51 70 88 92 94 96 98 97 94 93 95 88 89 94 93 94 96 97 96 97
98 95 95 96 97 95 85 92 88 95 96 92 90 95 96 96 95 95 95 93 75 55 54 50 56 75 80 85 90 92 93 88 82 78 80 89 92 92 92 93 93 96 96
88 95 91 96 97 94 92 88 89 88 93 90 93 89 94 95 94 92 89 82 80 74 60 56 54 57 64 69 81 86 89 90 89 82 73 73 83 84 82 85 88 93 94

GFSGL_925_rhum_015.txt.gz
RH
46 51 50 43 48 50 49 49 56 60 63 68 68 72 62 62 57 59 58 55 54 50 46 43 42 42 47 51 54 56 66 69 76 65 63 60 58 57 58 54 55 63 63
53 53 50 46 53 53 49 50 52 53 53 56 48 50 53 55 52 53 52 50 48 44 44 46 47 49 57 59 62 62 65 67 71 70 64 64 63 63 64 70 66 65 62
62 59 52 51 52 50 54 55 55 56 56 51 51 54 54 54 53 50 46 45 46 49 52 57 61 64 66 64 64 68 70 71 76 80 78 76 75 73 72 72 73 70 61
71 71 62 54 51 52 60 64 65 68 76 74 60 54 54 48 44 45 45 48 53 61 64 63 60 62 68 73 75 75 76 76 76 76 75 74 72 71 70 72 76 74 72
78 85 74 71 72 77 91 98 97 94 68 66 56 48 44 43 42 45 53 62 61 60 58 58 66 69 78 80 83 84 85 86 85 81 77 76 76 77 74 70 78 81 81
90 89 91 97 98 98 96 78 79 75 82 56 45 43 43 46 54 58 56 68 72 68 71 75 78 83 79 79 87 88 91 93 93 93 92 87 81 81 81 78 81 88 90
84 89 88 87 95 94 83 89 86 66 48 45 46 48 52 54 59 70 79 72 76 80 88 93 96 96 96 98 99 99 99 99 98 96 95 92 86 82 86 91 86 86 86
89 93 85 86 88 77 57 52 47 48 50 49 50 55 64 67 62 59 77 88 89 89 87 93 100 99 99 91 90 96 94 92 91 95 100 95 96 93 89 96 90 88 85
71 53 54 60 58 48 48 51 52 50 52 55 61 68 65 61 59 67 88 91 91 91 94 95 100 99 97 97 99 99 99 97 91 97 96 98 97 92 96 100 98 98 92
52 52 51 48 50 54 55 54 56 57 61 65 66 65 61 63 67 70 92 94 100 100 100 97 95 96 95 97 100 99 97 92 93 94 96 98 97 99 98 100 99 95 93
49 50 51 54 58 59 60 61 61 65 66 67 63 62 65 66 76 72 94 94 99 100 100 97 98 99 98 98 97 98 98 98 98 99 99 100 98 99 97 99 100 99 96
51 51 53 59 66 69 65 66 68 68 67 66 75 69 64 78 81 79 94 94 99 100 100 98 90 93 92 93 96 99 99 98 100 100 99 98 98 99 98 95 99 98 99
56 59 66 74 72 69 72 72 72 69 75 83 86 92 92 92 79 75 87 100 96 97 98 95 97 83 84 91 95 98 98 98 100 98 97 97 97 95 97 98 97 96 97
63 68 74 76 72 70 65 76 80 80 82 90 94 97 98 94 89 91 99 92 94 96 94 93 85 86 94 96 96 96 97 98 98 98 98 98 98 97 98 98 99 98 99
69 70 74 76 81 72 68 77 83 74 85 92 92 98 100 95 98 99 98 97 97 97 93 85 85 93 98 96 97 97 95 98 100 100 99 98 98 98 98 98 98 98 98
78 80 84 88 87 73 75 83 76 72 78 76 92 94 92 97 99 98 98 97 96 96 93 98 99 100 100 98 98 99 96 100 99 100 94 94 99 100 100 98 100 99 97
89 86 82 89 93 87 85 87 80 74 74 69 86 94 94 98 99 98 99 96 97 89 97 97 99 100 100 100 100 100 100 98 99 98 99 98 97 98 98 98 99 99 98
82 84 84 89 93 94 96 95 82 95 90 85 82 92 99 100 99 99 100 95 93 93 96 98 99 100 100 100 98 98 100 100 100 98 97 97 99 99 97 98 98 97 98
87 91 93 89 84 90 96 88 92 91 83 94 89 80 90 100 99 99 98 96 97 97 97 97 98 98 96 100 100 100 100 100 100 100 100 99 97 99 99 96 97 96 96
94 92 94 94 87 97 87 88 89 95 88 96 94 98 94 92 94 95 95 95 96 96 96 96 96 97 97 100 100 100 100 100 100 98 99 99 97 96 92 90 91 95 96
93 94 95 98 93 90 91 94 92 96 92 94 98 96 96 96 96 96 96 95 96 96 96 96 96 96 96 97 98 99 100 100 100 99 98 98 98 98 99 99 98 97 97
97 93 95 96 96 95 90 93 97 97 94 93 94 91 94 95 95 96 96 96 96 95 94 94 96 98 99 98 97 99 100 100 99 100 96 96 96 96 94 94 96 97 95
100 98 97 95 96 94 94 92 94 93 97 93 94 93 94 95 96 96 95 96 82 56 51 68 81 87 92 97 99 100 100 100 100 99 95 94 95 97 96 96 94 95 94
99 98 96 95 98 96 95 90 93 93 99 94 94 96 96 95 95 96 96 79 51 50 48 52 69 75 81 88 93 96 93 87 81 88 92 89 88 90 93 96 98 98 97
92 96 95 92 98 96 95 91 92 87 97 93 89 95 98 94 94 95 86 80 67 54 52 50 57 61 64 75 86 90 91 87 80 76 82 85 84 87 90 92 93 94 96
92 96 97 97 97 97 96 96 86 87 94 91 93 91 93 94 92 87 85 87 84 75 62 56 54 62 56 55 63 77 79 81 85 86 79 74 73 75 82 85 86 89 93

GFSGL_925_rhum_021.txt.gz
RH
77 66 70 71 71 70 65 65 79 92 94 95 83 83 90 98 94 77 71 85 82 78 76 73 67 66 60 58 57 54 52 51 51 45 47 49 55 56 55 54 57 58 57
68 70 74 65 66 62 70 79 89 83 93 98 100 99 99 95 86 75 66 66 64 58 55 55 53 52 55 61 63 62 61 59 58 54 50 52 55 57 59 59 58 53 53
77 79 84 83 69 77 94 95 99 99 98 99 97 90 84 80 62 48 50 54 55 56 59 63 65 69 65 62 61 60 57 56 55 56 52 51 52 53 55 58 60 59 60
80 84 90 81 89 94 100 99 99 96 92 86 91 76 56 49 52 56 58 61 63 64 68 67 68 69 66 63 61 61 61 61 60 61 58 57 58 59 62 63 62 64 68
88 89 92 94 98 89 96 95 92 92 95 100 100 75 51 50 57 66 66 69 69 66 67 69 69 70 79 79 73 67 67 70 76 79 75 65 61 62 68 66 64 61 64
83 89 97 100 100 100 92 93 93 100 95 72 56 53 61 61 60 59 68 68 68 72 72 70 72 78 78 86 93 91 90 90 86 84 74 71 63 62 64 69 75 75 71
86 90 86 77 83 85 79 60 55 59 61 61 62 66 68 74 63 76 81 74 77 77 76 75 74 73 82 83 87 95 95 95 94 86 86 77 71 68 69 76 77 77 70
72 77 67 65 62 61 58 61 62 62 63 65 67 72 72 68 61 67 86 82 84 82 81 80 83 89 94 97 95 94 86 88 91 94 92 83 78 75 73 76 78 81 79
65 63 65 62 62 62 61 64 66 67 68 69 72 72 71 75 72 73 94 87 84 88 88 90 88 92 92 98 99 98 89 80 80 90 92 92 91 88 90 94 94 92 86
71 69 70 61 66 68 71 71 71 72 70 76 75 74 82 83 75 84 90 87 89 85 83 82 88 95 96 97 98 96 90 79 78 81 79 79 89 94 95 100 97 91 78
71 71 64 66 73 74 73 72 70 72 81 80 78 81 84 82 88 92 92 91 89 89 84 82 91 96 96 97 94 96 96 96 94 94 91 86 93 93 91 96 97 98 89
69 68 72 76 75 74 72 69 72 77 85 92 96 91 83 94 94 90 95 94 92 96 93 94 98 98 95 95 99 99 100 100 100 98 96 92 93 90 89 94 98 95 92
68 72 72 76 76 78 76 76 78 79 82 82 82 79 78 81 82 86 99 96 92 96 99 97 97 99 94 94 100 100 100 100 98 94 89 86 85 92 98 99 97 99 96
73 73 76 80 84 87 87 80 82 84 83 82 82 82 82 76 76 85 90 87 92 97 96 98 97 97 94 93 92 97 100 100 99 96 95 95 98 96 92 94 95 94 98
80 81 80 84 90 93 89 88 91 95 91 88 83 84 86 83 87 96 96 95 98 98 97 98 96 92 86 86 88 90 92 93 94 98 97 95 93 93 92 93 92 91 90
83 83 87 91 92 90 86 86 88 82 82 90 93 90 86 89 95 97 97 99 98 95 97 95 95 94 91 88 90 90 90 93 95 96 97 97 95 95 95 98 99 89 80
80 86 92 92 90 88 89 90 86 87 82 76 78 96 93 89 96 97 99 100 100 97 96 95 95 96 94 91 92 92 93 96 98 97 97 97 98 92 93 93 96 94 88
87 93 96 100 100 100 98 95 92 92 93 89 88 90 94 94 97 98 100 98 96 98 97 95 96 97 96 94 95 96 98 99 97 98 97 100 100 96 87 88 91 93 90
98 100 96 96 98 99 98 98 96 95 91 90 89 90 96 99 99 99 100 98 95 95 97 96 98 98 99 99 100 100 100 100 100 100 100 99 100 97 90 92 91 94 94
90 96 98 99 99 100 99 99 95 94 90 91 90 97 97 91 92 94 97 99 97 97 99 98 99 100 100 100 100 100 100 100 100 98 100 100 100 99 96 98 98 92 91
99 96 90 100 100 100 100 99 99 98 95 95 96 100 95 96 94 95 94 98 98 96 98 100 100 100 100 100 100 100 100 100 100 100 100 100 100 99 100 99 98 94 92
98 100 98 100 98 100 100 100 100 100 100 99 99 100 92 100 97 96 98 95 95 94 97 100 100 100 100 100 100 100 100 100 100 100 100 100 100 100 99 97 96 95 92
85 96 98 99 95 96 100 100 99 100 100 100 100 100 100 100 100 99 99 100 94 71 61 86 99 98 93 92 89 97 100 100 94 92 97 100 100 100 100 96 94 91 92
90 94 95 99 98 99 100 100 100 95 89 100 100 100 100 100 100 100 100 100 96 72 61 56 70 75 67 60 63 76 87 88 84 77 73 86 98 98 100 98 98 99 93
95 99 100 100 100 100 99 100 100 98 88 91 100 100 100 100 100 100 100 100 93 81 62 60 56 56 64 64 54 56 66 72 71 70 64 68 75 84 86 97 100 95 99
95 100 100 100 100 99 99 100 100 99 94 96 96 96 96 98 86 90 99 100 100 89 49 47 54 52 46 49 59 57 49 43 41 50 55 64 67 71 93 94 95 93 96

GFSGL_925_rhum_024.txt.gz
RH
60 62 66 69 68 62 58 61 71 80 89 88 97 98 98 98 98 99 96 87 79 73 68 62 54 48 45 43 42 44 44 41 40 35 33 33 36 40 43 46 47 47 47
55 58 63 66 67 60 65 70 74 80 98 98 98 99 92 81 86 84 68 62 57 53 51 49 45 41 42 44 44 44 43 42 41 40 36 36 38 40 42 46 48 45 43
52 56 58 62 64 68 76 85 93 94 94 92 82 73 66 62 58 56 53 54 54 52 49 48 49 50 51 50 49 46 44 42 41 40 39 38 38 39 40 42 44 45 47
61 59 57 68 76 84 86 89 81 73 70 72 74 81 84 71 60 54 54 54 54 52 54 55 55 56 56 54 51 48 47 46 44 44 42 40 40 40 42 44 45 46 47
60 56 62 82 97 98 98 91 87 73 68 69 68 59 57 56 47 63 59 55 51 49 50 54 54 56 67 74 69 58 54 50 47 49 62 59 54 50 50 50 54 54 53
59 57 70 78 78 78 77 68 57 52 49 50 51 53 54 52 59 63 71 59 54 54 56 55 56 57 56 64 74 83 80 78 75 76 70 69 64 61 59 62 65 66 70
60 58 58 58 57 55 51 49 50 52 50 50 52 54 56 57 60 67 80 65 62 61 61 58 54 51 60 72 83 91 88 85 90 84 82 75 68 65 66 68 70 75 68
58 60 56 57 53 52 52 54 53 49 51 52 54 56 58 56 65 80 84 72 66 64 62 59 61 71 76 86 90 86 90 86 88 92 91 77 70 77 81 78 74 75 75
60 65 68 60 56 54 56 53 51 53 53 53 57 60 61 66 72 86 90 75 71 72 75 79 78 85 88 98 97 94 81 76 69 76 83 85 80 76 78 89 94 86 84
56 56 57 58 58 58 52 53 54 52 54 62 71 72 72 73 84 90 85 78 88 83 83 81 87 86 93 94 98 98 91 72 76 84 82 89 90 88 82 91 94 90 83
51 57 57 60 57 52 54 53 54 56 65 85 88 89 87 83 84 89 83 86 93 88 83 78 79 98 97 96 95 89 88 97 92 92 91 94 94 90 84 87 91 97 88
57 57 58 57 54 54 56 55 58 60 66 85 90 88 82 88 80 80 80 93 94 94 88 89 96 95 98 97 95 96 99 99 99 96 94 91 88 85 89 94 94 94 93
58 56 57 56 58 59 61 60 62 64 74 83 81 78 79 71 65 80 89 93 91 91 96 95 96 98 98 95 97 96 96 99 94 92 88 82 88 85 90 89 96 98 97
59 57 57 57 64 62 62 61 64 72 84 76 74 74 72 71 64 80 86 86 90 95 95 97 96 95 95 97 96 94 98 94 92 91 88 88 91 93 93 92 89 90 95
61 64 63 65 70 70 67 68 73 78 86 82 75 74 74 77 82 91 95 92 95 96 98 96 94 93 92 89 88 88 87 89 92 92 92 94 91 90 95 89 90 86 89
64 65 66 78 77 73 69 69 78 86 78 88 94 91 82 84 90 93 95 98 99 99 94 92 92 94 92 88 83 84 91 93 89 90 93 92 93 94 90 98 97 86 87
82 81 80 85 79 73 75 76 76 76 87 91 86 92 92 88 93 94 95 99 99 97 92 92 93 94 93 91 88 88 89 90 94 88 88 89 91 92 92 90 91 96 92
93 91 90 84 85 86 86 85 84 83 82 70 80 86 93 89 94 93 96 94 89 92 92 92 93 94 93 91 89 90 89 90 89 88 88 90 91 90 87 85 86 89 92
97 88 94 95 96 95 94 87 87 83 82 69 68 70 78 89 98 97 93 90 89 89 91 92 94 93 91 90 92 92 94 92 90 90 89 90 92 92 85 85 88 96 89
84 91 90 88 90 90 86 85 83 82 76 70 70 74 76 81 83 84 87 91 90 89 91 90 88 90 94 94 93 91 83 89 89 89 90 94 95 96 88 87 87 88 90
83 82 90 87 89 88 87 86 84 83 79 73 73 87 87 88 85 86 86 86 81 78 82 83 85 89 93 95 94 93 86 87 91 92 92 91 96 93 91 89 92 91 90
85 95 91 90 89 89 87 85 86 86 83 76 76 78 85 91 86 86 85 85 87 87 87 88 87 88 94 99 99 98 92 90 90 93 93 94 93 92 93 91 86 88 86
92 89 87 86 88 90 92 90 90 91 88 83 82 79 76 85 89 90 89 90 89 91 94 93 91 90 92 97 98 100 99 100 100 98 94 88 83 87 87 88 86 87 83
89 93 87 85 94 86 88 89 91 92 95 88 85 84 81 83 86 92 96 100 94 92 95 98 96 95 98 98 96 95 89 69 95 100 97 86 82 84 82 80 80 83 84
93 96 94 92 91 94 90 90 91 92 92 93 88 87 84 86 84 88 92 96 95 92 91 97 99 96 96 96 84 58 46 40 39 42 95 84 84 85 86 79 84 77 82
91 90 90 91 94 94 94 94 92 94 93 93 92 91 90 86 86 91 92 92 92 91 90 93 96 96 97 92 53 40 40 39 35 34 94 82 83 82 84 82 82 77 77

GFSGL_925_rhum_027.txt.gz
RH
40 39 41 45 48 50 50 52 59 69 78 83 88 98 89 85 78 80 80 77 75 70 68 71 64 55 48 42 44 55 60 59 56 46 38 35 35 36 35 37 39 42 45
33 35 41 46 47 49 57 71 69 71 75 79 89 88 75 71 59 57 59 53 52 52 52 48 42 38 39 40 40 40 39 38 39 42 36 36 36 36 38 40 40 39 40
41 44 44 46 57 66 71 75 72 76 78 81 84 84 68 57 54 54 51 47 45 43 43 42 42 44 45 44 44 43 41 39 38 38 37 35 35 35 37 38 39 40 41
46 46 45 55 70 75 93 92 96 84 81 79 69 56 48 44 43 42 42 50 49 45 45 46 47 49 49 47 46 46 44 42 41 41 42 39 37 36 38 40 41 40 42
47 45 46 65 69 79 84 79 71 66 49 46 43 42 41 42 40 53 57 58 53 48 46 46 45 48 52 54 54 53 53 52 49 46 44 43 42 43 46 45 49 50 51
45 44 48 56 55 56 58 54 50 49 49 43 41 41 42 42 53 58 62 63 57 55 52 49 47 48 47 49 55 64 71 68 67 71 68 60 58 62 65 64 64 66 80
45 43 49 52 54 55 53 52 50 47 40 41 42 42 44 45 58 60 66 70 64 61 58 57 54 48 48 54 70 76 87 92 88 82 80 73 68 64 64 67 71 72 70
37 43 46 56 58 53 46 45 42 40 42 42 43 46 48 49 61 72 81 75 67 64 64 63 58 57 63 74 81 79 81 82 87 89 88 78 74 76 81 77 82 76 81
36 41 48 54 47 45 42 41 42 42 43 43 46 60 64 69 72 93 84 78 74 74 68 76 78 80 77 86 99 98 81 80 73 90 93 85 78 77 76 83 84 90 91
34 38 46 46 46 43 41 42 43 42 42 51 71 67 76 77 83 83 85 78 83 82 75 71 75 78 82 93 98 97 89 82 92 81 80 80 80 88 92 95 89 83 77
35 43 49 47 45 42 42 43 42 42 50 81 78 84 80 85 87 82 89 85 77 93 85 86 82 95 97 98 98 97 94 98 88 88 89 89 89 94 95 96 98 96 88
46 49 50 48 46 43 45 44 43 46 56 79 87 85 82 84 74 77 93 84 92 90 88 87 97 94 98 98 98 97 96 97 96 97 97 91 96 98 96 97 98 98 94
56 53 54 53 46 43 44 44 46 52 62 82 81 79 78 74 69 80 77 87 92 91 94 98 93 96 95 95 95 93 95 99 98 94 88 84 83 83 90 88 83 84 95
53 58 62 54 49 53 50 47 53 62 76 81 70 73 71 72 69 77 79 92 90 91 96 94 97 96 95 96 96 97 98 98 95 95 95 92 94 95 96 83 82 94 92
67 85 68 52 53 69 62 57 61 69 81 76 73 76 78 79 76 81 92 93 94 96 97 98 95 94 94 95 94 94 96 92 95 96 96 94 92 86 98 97 96 86 78
94 88 59 65 70 74 70 63 68 84 84 80 77 84 84 82 81 87 90 90 95 98 96 94 94 95 95 94 93 92 92 93 91 93 93 96 94 90 90 92 96 97 85
98 77 69 79 81 83 77 77 82 82 95 96 96 87 92 86 82 88 89 88 97 94 93 93 94 95 95 94 94 92 90 92 94 89 92 93 95 94 97 90 87 87 93
98 90 85 76 91 93 89 91 90 85 81 79 94 93 86 83 84 86 86 89 84 91 91 93 94 95 95 84 84 87 91 94 95 96 95 94 95 94 93 93 93 90 83
96 86 93 94 97 96 92 95 90 90 87 82 69 76 81 73 95 97 98 88 87 87 89 91 94 94 85 86 90 90 92 94 94 96 95 94 96 97 88 91 95 89 87
73 80 80 85 94 96 95 93 88 84 84 80 71 78 76 70 84 93 87 88 88 80 82 80 80 81 88 90 90 89 89 88 90 92 94 96 95 95 91 91 93 91 85
69 83 96 92 90 96 94 90 93 86 88 82 77 96 77 79 92 91 86 90 80 77 81 80 80 83 86 87 86 89 86 87 87 87 90 92 96 94 92 92 90 90 86
78 85 92 96 97 96 94 87 90 92 92 90 81 79 88 95 85 84 87 90 86 84 85 86 86 84 86 90 90 89 85 86 88 89 88 87 84 86 95 92 89 94 88
91 91 94 93 92 94 92 95 92 93 91 92 90 83 81 83 77 84 88 95 91 88 91 91 92 90 92 96 94 92 88 92 98 96 95 87 80 78 80 77 85 81 88
90 95 93 90 93 90 88 92 93 94 93 89 93 93 84 81 78 79 91 96 97 92 92 95 94 93 94 96 96 97 95 70 88 94 100 89 81 81 78 74 77 73 73
94 93 95 92 92 92 91 92 94 94 94 93 92 95 89 84 77 78 83 86 89 89 91 93 96 95 96 97 76 48 32 37 39 41 100 85 85 83 83 76 80 72 72
92 92 91 91 94 93 91 91 94 94 93 94 94 95 95 85 78 81 84 86 86 87 89 90 93 96 98 90 77 35 27 25 27 42 96 88 85 82 87 80 80 73 72

GFSGL_925_rhum_030.txt.gz
RH
34 35 38 43 45 48 56 66 69 67 68 74 72 78 81 82 74 75 73 71 71 68 64 61 63 61 55 53 48 50 65 77 95 80 65 55 43 42 43 43 46 42 40
36 40 43 45 47 57 61 66 72 73 67 74 81 86 85 71 64 56 55 56 52 55 52 48 48 46 46 46 47 48 48 47 48 52 46 42 40 38 37 38 39 42 42
39 42 44 45 58 70 77 80 78 76 73 82 68 70 71 62 49 44 42 45 52 52 50 51 51 49 49 50 51 53 53 51 48 50 49 44 42 40 38 38 38 39 40
40 43 44 53 63 71 74 80 77 75 77 66 56 49 45 43 42 45 48 55 59 58 55 54 54 51 50 50 56 55 54 55 56 55 54 51 47 45 42 44 47 46 46
40 44 43 52 57 60 58 61 58 55 52 52 49 42 42 42 47 49 54 61 63 63 60 59 58 54 53 52 51 53 54 57 62 65 66 68 67 61 60 61 63 61 60
37 41 42 46 53 54 57 56 54 52 53 43 42 43 44 47 53 56 60 66 72 72 67 64 65 65 56 57 60 65 77 77 76 75 72 72 71 68 66 67 69 75 86
34 35 37 44 55 57 57 53 50 48 42 43 44 45 51 58 62 70 77 78 78 75 74 73 72 68 66 66 68 69 72 78 83 87 96 84 79 75 72 70 70 75 79
34 32 34 45 46 53 55 47 45 42 43 44 44 57 63 63 70 76 80 77 70 78 80 70 73 79 78 77 77 87 84 88 84 87 98 95 90 88 87 96 99 98 98
38 34 36 40 47 49 47 47 42 42 44 44 51 65 68 69 67 76 91 84 84 80 76 80 80 73 73 81 91 93 95 91 86 79 84 92 91 86 83 93 95 92 85
40 48 62 58 48 52 50 45 42 43 44 53 68 70 75 74 83 79 82 97 96 90 83 83 80 81 92 96 96 96 98 90 87 90 89 84 69 71 72 82 98 98 93
59 65 57 56 56 52 48 43 43 44 49 63 71 74 74 79 78 77 88 95 97 96 91 87 86 93 97 95 96 96 98 96 95 94 91 87 85 90 94 93 96 100 98
54 62 70 79 60 57 46 44 46 47 56 76 81 77 79 81 76 76 97 93 84 95 97 94 97 94 96 96 96 96 95 96 94 96 99 99 98 96 92 90 90 89 94
68 85 75 68 69 66 51 48 49 56 70 80 82 79 81 78 75 85 86 79 87 94 96 97 98 96 96 95 95 96 96 96 96 98 97 97 93 86 90 90 87 84 89
68 85 84 88 81 56 60 60 58 62 71 77 78 76 80 79 77 84 80 95 92 93 92 89 96 95 92 95 95 96 95 97 95 97 96 96 96 95 92 98 96 86 82
95 89 92 85 66 69 68 65 63 69 74 80 80 81 87 90 87 80 84 96 95 97 91 95 95 94 96 96 95 95 95 93 94 94 96 95 95 93 94 88 96 97 95
96 96 91 88 75 73 72 75 71 78 84 87 86 88 85 92 88 79 82 84 85 96 95 96 96 96 96 96 96 96 94 96 96 96 95 94 96 90 95 90 90 92 95
94 87 80 80 76 83 86 87 94 81 83 84 91 98 96 95 85 81 82 82 91 96 94 96 96 96 96 96 96 96 97 97 96 96 97 95 94 91 98 93 87 93 90
98 88 92 88 75 78 91 85 81 96 96 90 81 95 97 87 74 91 94 87 87 91 92 95 96 96 96 92 93 97 97 96 96 95 97 96 95 97 96 93 95 98 98
82 79 77 79 80 87 89 84 95 93 94 88 86 89 97 80 70 96 91 87 91 92 92 95 95 95 94 94 94 93 97 97 94 94 97 98 98 98 95 94 94 96 94
80 82 71 77 78 83 90 97 93 94 92 91 87 95 84 65 79 89 91 91 89 82 81 90 89 89 92 91 93 93 95 96 96 96 92 97 98 97 98 96 96 97 97
71 71 82 79 82 94 95 91 96 94 93 91 89 96 89 70 90 86 90 95 90 86 87 83 95 90 91 89 94 93 96 94 89 95 89 98 99 92 96 96 92 94 97
75 76 82 83 86 87 91 95 79 92 94 93 94 94 86 89 97 81 90 94 88 89 90 88 88 90 94 90 97 93 96 88 78 93 87 94 98 84 92 85 92 79 85
80 83 80 89 92 90 90 89 91 92 92 92 83 87 93 91 87 84 92 84 88 93 93 86 92 93 88 84 94 91 98 69 60 74 89 95 98 83 88 86 80 91 77
75 80 79 93 88 91 91 94 96 92 93 94 91 91 91 93 88 82 83 92 86 84 96 86 90 95 92 88 88 53 50 35 38 41 92 99 92 87 86 85 74 88 76
82 89 82 88 83 88 87 84 88 91 94 91 94 92 96 91 91 86 86 87 92 89 92 86 92 89 87 94 97 53 30 26 27 56 84 96 85 86 79 90 80 82 77
84 90 89 87 91 91 94 95 93 89 88 88 92 96 95 92 83 83 83 85 86 89 87 90 88 89 88 99 82 34 27 24 25 74 92 86 85 90 69 86 84 82 81

GFSGL_925_rhum_033.txt.gz
RH
35 37 41 43 47 53 60 65 69 65 73 64 68 77 72 70 66 69 67 61 61 59 64 57 52 50 50 49 49 51 52 60 92 76 73 54 49 47 47 46 52 65 80
36 40 42 43 51 55 60 63 70 63 66 78 69 70 64 64 60 56 50 49 53 52 52 50 48 45 49 52 51 52 51 57 62 67 61 55 49 44 42 39 38 42 48
36 40 42 45 56 58 61 62 59 65 67 67 67 60 51 43 43 45 49 55 58 56 55 56 55 50 49 54 52 52 56 55 54 56 61 57 54 50 51 49 45 40 35
37 36 39 47 54 56 61 56 60 61 56 56 52 49 43 44 48 49 50 53 56 60 64 65 63 59 61 63 70 64 55 53 53 54 62 66 65 62 61 63 62 61 60
34 34 36 43 52 54 55 56 58 57 54 54 45 43 45 51 54 54 60 70 73 73 69 68 71 74 76 71 76 82 74 72 65 67 71 72 70 66 67 65 67 65 62
36 35 34 34 51 56 55 55 55 55 51 44 43 46 52 56 63 66 70 75 71 69 61 74 80 79 74 72 77 80 73 86 96 96 93 87 81 78 77 75 74 76 87
48 40 41 44 50 56 55 59 57 51 44 43 44 53 54 62 67 64 70 80 84 74 68 64 66 73 76 79 76 74 78 85 82 81 87 90 94 85 84 88 84 82 82
38 42 48 52 60 67 81 56 52 45 42 43 53 60 65 66 64 68 80 81 86 88 86 82 80 81 85 80 83 92 87 82 82 83 91 89 93 96 95 96 93 99 99
44 49 58 66 80 96 82 80 55 43 43 52 58 66 64 61 68 75 72 88 88 91 86 80 80 84 84 88 96 97 89 81 80 97 92 85 85 84 95 99 99 100 87
44 60 65 80 98 100 91 67 43 43 55 60 64 67 64 70 81 81 91 93 92 92 94 90 91 90 97 97 97 97 100 93 88 90 87 82 77 73 71 79 88 96 91
53 60 71 81 82 94 62 47 47 52 64 67 68 65 67 81 78 86 100 95 96 98 99 95 93 95 96 97 97 97 97 97 97 97 95 88 88 96 95 97 98 98 98
54 66 84 86 83 66 57 54 51 58 68 70 64 64 71 77 67 86 91 83 85 92 98 97 97 98 98 97 95 96 97 96 97 96 96 96 96 97 97 96 96 100 100
66 80 90 94 86 68 60 59 58 63 66 70 75 79 77 75 75 80 76 88 94 91 95 98 97 98 98 94 96 96 96 97 97 97 97 98 96 98 98 98 99 100 94
79 88 88 88 80 75 68 64 64 68 73 79 81 79 80 80 83 88 83 93 88 90 96 93 97 91 94 95 95 95 96 96 96 98 98 96 92 85 80 88 97 97 98
75 81 88 95 94 76 69 74 72 75 77 80 86 86 88 88 92 88 82 90 91 97 92 92 94 92 96 96 95 95 96 96 98 96 97 97 96 92 86 92 86 86 94
84 77 84 94 85 82 79 75 75 77 71 78 81 89 95 94 93 88 85 85 84 96 88 97 97 96 97 97 96 97 96 96 96 96 97 98 100 95 96 93 83 87 94
89 90 88 87 82 76 82 80 80 70 79 74 79 83 100 97 93 80 88 88 80 90 95 96 96 97 97 96 97 100 99 97 95 96 96 97 97 96 98 95 91 93 96
93 85 81 81 73 72 81 79 75 96 89 84 79 88 96 87 84 93 91 79 79 84 84 97 97 97 97 98 99 100 100 98 96 92 96 97 98 99 97 97 96 98 99
83 78 74 73 77 80 79 75 94 90 86 88 86 92 94 94 63 81 84 88 90 83 79 83 97 95 90 92 94 93 99 96 91 90 91 97 100 100 97 98 95 96 92
81 90 81 69 74 82 82 93 95 86 89 85 87 95 97 86 68 90 90 94 86 84 85 78 90 97 92 88 96 94 94 70 77 83 89 94 98 100 98 100 96 95 98
91 86 75 76 74 77 79 89 96 85 74 83 90 98 96 84 85 96 87 89 88 85 87 85 81 91 90 84 99 92 94 65 55 70 90 93 95 98 91 91 95 88 85
75 74 74 76 75 75 82 88 77 81 92 98 97 83 87 91 93 94 87 85 82 86 91 90 81 92 90 82 93 82 82 59 47 53 87 96 94 94 90 83 88 88 78
78 83 74 77 72 79 79 73 85 92 97 93 88 89 91 95 95 94 86 85 82 80 84 90 78 86 89 82 92 80 55 43 41 54 97 98 95 89 91 86 87 83 78
72 72 73 73 71 88 86 88 87 83 89 96 94 94 97 98 94 93 85 85 89 89 88 89 82 85 76 85 95 91 44 29 30 65 96 96 95 77 88 85 84 82 81
77 78 83 86 73 73 72 80 88 90 84 83 85 95 98 96 91 88 90 88 86 86 85 89 86 80 80 96 95 74 31 26 28 80 91 80 85 83 70 84 80 75 77
86 73 77 90 87 86 91 86 87 94 91 94 96 84 80 93 97 92 88 87 84 83 87 81 89 80 75 87 89 40 28 22 31 75 91 95 66 79 86 68 71 78 77

GFSGL_925_rhum_036.txt.gz
RH
34 36 40 43 44 47 52 60 55 49 52 56 71 76 68 61 61 59 57 55 54 60 56 55 53 53 58 47 48 50 53 58 83 73 64 57 58 52 48 45 46 46 67
35 37 39 40 42 47 50 55 49 43 51 59 63 64 55 51 46 48 49 58 59 59 58 57 57 57 56 52 48 56 62 61 66 74 62 59 51 48 50 50 48 47 47
36 35 35 36 41 49 57 57 50 54 58 59 57 54 55 48 48 51 51 53 55 60 65 67 66 62 60 61 65 71 74 69 68 67 64 58 61 60 55 53 58 61 59
37 36 35 35 38 53 58 57 54 60 61 57 56 46 45 46 49 51 54 61 64 66 66 60 55 71 78 81 83 86 86 84 78 71 69 68 69 65 62 63 61 58 56
39 41 38 41 41 53 57 58 61 64 59 58 50 44 44 49 52 60 61 58 64 70 71 63 61 71 73 77 91 94 97 90 91 95 93 87 81 77 72 67 75 75 74
39 41 48 46 47 49 58 62 70 65 83 51 44 44 50 56 64 65 62 68 79 83 82 77 75 74 73 81 82 90 77 88 94 92 89 91 87 74 75 82 84 85 95
32 45 47 49 52 61 64 69 92 100 80 44 48 55 61 67 69 70 76 82 88 91 92 92 93 85 68 80 80 83 85 84 87 88 98 98 92 85 85 93 93 95 91
48 61 63 63 62 69 81 98 90 87 77 56 58 67 67 63 64 76 81 86 90 88 83 82 81 78 86 92 93 96 93 88 82 89 99 93 90 86 95 94 92 100 98
54 55 50 63 67 76 96 98 80 88 69 62 70 69 63 70 82 90 92 95 90 82 80 80 86 90 91 90 97 98 96 88 74 82 89 93 97 100 99 100 99 99 94
52 50 54 72 82 92 94 90 80 61 59 67 68 63 69 75 76 93 89 92 87 95 96 93 91 92 95 97 97 98 99 94 92 91 85 83 82 79 77 82 86 94 89
54 56 65 81 90 98 98 69 59 64 66 67 64 67 75 74 68 89 88 83 87 97 96 94 95 100 99 98 98 95 98 97 96 98 97 95 94 95 96 96 96 98 98
61 65 74 80 78 89 74 76 85 70 68 69 74 79 78 76 77 80 83 85 86 94 96 94 97 99 96 98 96 96 96 93 97 97 97 96 97 97 97 98 98 100 100
76 80 84 89 87 83 67 62 65 69 74 79 83 82 80 82 82 77 78 93 87 95 96 98 99 96 99 92 97 96 95 96 96 95 97 96 97 97 96 96 97 99 100
88 87 76 78 90 86 89 83 70 75 76 76 82 85 87 89 86 82 90 94 88 91 94 86 89 88 92 95 93 94 96 96 97 97 97 96 96 94 93 98 89 84 85
100 97 80 80 100 96 84 77 79 78 76 78 83 86 93 93 90 93 94 91 80 95 77 82 88 90 96 96 94 95 96 95 96 96 96 97 96 95 96 94 91 91 93
100 98 89 91 96 91 84 87 79 74 78 78 84 88 95 97 92 91 95 90 79 94 79 97 96 95 98 98 99 97 97 98 96 97 96 96 98 96 98 94 91 95 100
96 99 94 94 85 71 74 75 82 69 80 72 80 82 91 98 91 86 89 86 84 76 76 94 98 96 97 99 100 100 100 97 92 95 97 96 96 96 97 100 94 93 98
94 98 95 88 75 77 76 81 85 93 93 78 79 86 87 86 86 91 87 78 77 78 75 84 99 98 94 99 100 100 99 75 86 90 95 96 96 98 98 100 98 99 94
94 92 95 92 76 81 78 78 86 92 82 80 72 87 94 94 78 78 79 86 84 82 83 78 90 98 91 91 96 93 90 57 70 89 96 96 95 97 96 99 98 95 94
83 85 88 81 79 70 80 85 93 92 82 68 81 92 96 98 86 83 88 90 89 83 85 86 82 89 86 79 95 86 85 51 51 82 95 95 94 96 98 96 98 89 87
77 78 79 74 73 81 80 78 88 85 74 87 89 94 96 95 88 90 93 91 88 85 87 90 80 87 86 71 75 60 57 45 45 63 95 95 94 94 94 86 94 81 77
77 78 78 78 79 78 78 80 76 79 90 96 91 92 96 94 95 96 95 91 88 83 82 86 86 78 88 78 82 84 54 38 35 54 93 95 93 82 94 86 85 79 75
79 74 72 72 73 73 79 80 85 88 87 90 95 97 98 98 98 96 94 88 86 88 87 89 89 74 77 74 85 91 63 34 34 72 95 95 94 77 92 83 85 82 77
95 89 82 76 77 79 75 73 73 80 90 92 92 91 90 96 98 97 93 88 88 91 90 87 90 80 76 72 83 85 44 28 29 79 93 83 87 75 81 78 75 78 76
81 85 88 91 86 89 86 80 85 89 83 90 93 98 91 81 97 96 94 89 88 87 85 86 85 84 73 67 82 69 33 25 33 78 88 84 64 83 66 65 78 76 73
99 96 93 97 80 82 88 85 86 83 91 88 86 97 94 88 76 86 94 92 93 92 87 88 83 88 69 67 71 52 29 24 31 63 81 85 57 72 88 72 79 83 74

GFSGL_925_rhum_039.txt.gz
RH
34 36 37 37 39 44 46 51 60 59 47 50 55 66 71 62 54 48 50 52 51 56 58 58 57 58 57 58 56 54 56 59 78 70 66 62 57 55 52 49 49 48 50
36 36 37 38 42 42 47 52 58 58 53 56 62 66 66 57 54 46 48 57 58 56 56 58 59 62 61 58 60 64 67 69 81 83 76 71 62 56 53 49 46 49 56
38 39 39 38 40 40 43 53 65 63 57 63 66 71 60 49 45 49 52 53 58 62 61 63 62 56 60 69 78 84 89 93 91 90 86 75 65 62 62 57 53 53 47
45 44 45 46 47 48 48 55 62 65 65 71 75 67 57 48 49 51 56 61 59 61 67 70 67 61 64 75 73 84 98 97 97 97 95 93 83 70 72 71 64 56 57
27 31 39 42 40 38 42 51 64 68 76 80 93 92 55 51 54 60 62 62 66 74 78 77 78 80 85 79 79 84 91 96 98 96 96 94 90 82 80 70 71 69 73
29 43 43 40 42 48 49 58 69 78 89 98 97 64 79 63 64 65 69 81 83 88 91 92 88 89 89 86 82 87 91 97 99 96 90 93 90 88 80 76 81 90 97
40 50 56 54 57 54 55 71 82 82 75 84 78 88 71 67 69 77 82 86 92 96 95 89 88 90 82 85 87 94 92 88 97 100 99 95 96 94 87 90 90 96 96
48 55 53 55 55 59 79 92 94 96 94 89 80 73 68 64 72 83 87 90 88 83 77 81 91 93 92 93 98 97 94 84 72 78 88 87 91 96 99 96 96 99 99
48 52 52 53 65 82 95 95 100 98 99 76 75 67 62 63 74 92 93 89 82 79 88 88 90 93 94 93 96 95 94 89 80 93 94 93 94 95 98 98 98 98 92
50 53 59 62 71 82 82 77 97 76 67 71 69 64 68 74 70 91 90 84 81 93 93 88 89 98 98 97 97 97 100 90 98 93 89 90 88 88 86 91 92 97 94
55 67 70 76 80 86 89 75 65 77 95 70 66 71 78 78 77 88 86 85 88 93 96 98 90 100 95 92 96 96 97 97 96 98 97 96 96 96 96 94 90 93 98
66 78 80 77 81 88 82 74 91 89 75 71 77 82 82 82 84 80 88 93 90 96 100 94 98 92 91 97 97 99 98 95 95 95 95 96 97 97 97 98 98 97 97
84 91 99 89 82 87 76 70 81 81 75 77 82 87 85 88 90 80 84 99 91 88 95 94 94 94 97 92 99 98 95 95 96 96 99 97 97 97 96 96 97 98 98
100 100 100 90 93 95 97 97 88 78 76 75 81 84 88 92 93 84 94 95 81 88 84 79 80 80 84 93 91 95 97 96 96 97 97 97 96 95 96 97 96 96 89
89 93 99 91 98 98 96 92 90 83 79 86 87 91 94 96 96 94 94 90 80 89 76 78 82 86 92 96 94 96 95 96 96 96 98 97 95 96 96 97 97 91 95
96 98 99 98 98 95 84 82 86 80 82 88 84 87 85 97 97 95 89 91 85 82 70 92 94 93 95 100 100 100 99 94 91 96 96 96 97 97 97 96 96 98 99
99 98 97 93 94 84 79 76 81 71 83 75 78 77 83 85 85 90 89 81 78 76 71 83 94 95 94 99 99 100 98 66 80 94 96 96 96 96 96 97 97 95 90
95 97 98 98 87 75 72 79 83 89 97 80 69 80 88 89 91 87 87 78 77 77 80 78 92 94 87 95 99 98 83 51 72 95 95 96 96 96 96 99 98 100 94
92 95 88 96 93 76 75 78 84 90 91 81 70 78 89 92 96 80 82 84 86 83 84 86 81 91 87 77 93 78 75 47 58 91 95 94 95 96 95 96 95 82 86
82 86 86 94 87 81 72 80 80 92 90 77 79 85 93 99 93 91 88 91 92 87 86 89 83 82 86 69 70 54 48 39 39 79 93 92 91 96 95 97 96 86 79
88 84 74 75 76 74 80 81 82 88 84 81 89 86 96 100 97 96 95 96 93 88 83 83 88 77 82 73 70 74 52 38 37 62 93 91 87 88 91 93 90 78 78
87 85 76 77 82 82 73 74 82 82 85 89 88 92 98 98 97 97 98 95 93 90 86 86 88 83 76 72 71 81 64 35 31 58 86 88 86 76 88 85 84 77 78
91 89 87 81 78 76 72 73 77 78 82 86 88 88 92 99 100 99 96 94 90 88 91 89 90 89 75 67 71 82 61 32 30 68 89 80 82 73 85 78 80 75 79
87 84 88 92 92 91 92 89 83 75 78 89 87 90 94 92 91 92 98 94 89 87 92 91 87 88 79 64 67 74 50 29 27 69 90 87 65 80 65 67 75 70 77
98 96 93 88 89 94 97 88 87 90 87 87 84 91 89 95 92 80 85 96 90 90 90 89 86 86 84 65 60 60 38 28 29 54 79 84 64 75 82 65 80 74 72
100 99 98 97 99 98 97 96 85 85 91 88 83 88 86 90 97 96 80 87 93 90 92 92 88 86 84 74 70 57 37 29 26 42 59 76 63 58 89 79 73 84 81

GFSGL_925_rhum_042.txt.gz
RH
36 36 38 40 44 46 51 47 47 58 68 68 55 60 70 76 66 58 55 53 49 55 60 58 56 58 59 61 60 60 64 70 84 71 71 70 68 64 64 56 53 51 43
41 40 42 43 45 46 47 48 56 64 72 67 63 69 72 72 61 56 48 49 57 56 58 60 56 58 59 56 57 64 73 82 95 93 89 91 83 73 67 59 56 53 48
45 39 32 31 42 47 40 38 48 59 70 71 71 76 77 76 61 55 53 56 59 61 60 63 64 69 68 64 64 76 74 89 99 98 91 94 88 82 71 65 63 60 57
26 28 34 40 39 37 37 38 40 42 72 85 85 85 84 96 70 58 60 64 62 63 67 74 78 80 82 82 89 84 82 88 93 91 91 89 93 83 82 83 75 70 64
29 32 43 44 41 40 42 44 51 69 83 87 92 97 100 74 78 74 68 68 69 72 77 84 87 94 92 91 91 94 92 93 92 91 89 87 86 90 88 80 80 72 68
32 44 47 45 43 46 54 63 70 85 87 80 94 93 76 85 74 74 76 80 83 89 93 91 86 86 87 91 91 88 88 94 95 92 90 90 86 91 92 91 92 92 88
36 40 46 50 52 55 64 77 94 97 92 86 86 82 86 71 70 71 75 81 85 76 74 70 80 88 89 92 90 95 93 95 94 96 97 96 97 95 97 97 94 98 96
42 47 52 55 59 62 66 74 90 88 87 92 88 78 71 65 67 68 79 81 75 67 68 79 95 94 93 95 97 96 94 97 96 97 96 94 94 92 94 95 98 97 96
54 55 59 65 65 68 75 82 96 95 99 98 80 74 68 65 70 79 87 82 73 74 78 85 94 97 98 95 97 98 94 88 95 95 98 98 98 98 97 99 97 98 96
57 63 66 71 73 77 81 94 91 82 70 77 78 70 68 73 73 82 90 86 84 91 90 87 85 100 97 92 95 97 99 96 94 90 93 94 96 96 97 99 98 96 89
76 72 74 80 83 89 87 92 70 77 89 98 75 71 78 80 78 82 90 91 92 96 91 96 94 99 91 92 96 95 98 97 95 97 97 95 96 97 97 97 94 93 99
74 87 96 96 94 87 84 88 95 98 92 75 79 79 85 84 84 86 92 96 94 94 90 94 92 90 88 94 95 98 99 94 94 96 98 98 97 97 97 97 98 97 96
93 99 99 98 98 92 86 82 91 94 94 82 75 81 80 86 91 89 82 96 92 84 92 91 94 93 88 87 98 99 94 94 96 98 98 100 100 98 94 93 95 98 98
97 92 81 98 94 100 99 97 95 91 83 76 82 87 88 91 96 89 92 96 86 83 78 76 76 74 72 82 80 91 97 95 96 98 97 97 94 94 96 98 96 97 97
97 88 95 99 98 97 94 87 90 96 92 87 89 91 96 89 96 89 97 92 85 86 71 71 78 79 76 87 88 88 93 69 83 95 96 98 99 97 96 96 96 96 98
96 100 100 98 100 89 87 82 71 76 84 91 91 90 83 88 95 99 92 92 86 79 68 74 90 89 84 92 100 97 85 62 79 98 96 98 99 98 99 96 95 96 98
97 100 100 99 96 87 73 69 75 75 74 88 84 76 83 86 86 94 91 84 77 76 74 76 84 94 89 83 97 92 94 52 80 96 96 96 96 96 97 100 96 97 97
92 99 100 98 99 99 91 74 75 83 89 86 74 77 78 88 91 92 90 85 82 80 78 83 81 86 90 77 90 87 71 41 53 93 94 93 94 96 97 99 98 92 91
82 82 90 80 92 95 87 89 75 86 90 94 88 78 81 92 100 100 90 85 89 89 82 83 87 78 84 77 71 59 50 43 41 83 93 93 92 96 93 96 95 80 78
85 80 79 76 77 81 86 80 81 83 85 88 83 79 89 98 100 98 96 94 94 92 89 82 82 85 76 80 68 72 54 37 35 53 87 88 84 94 94 95 94 86 81
85 86 88 89 77 79 78 83 80 79 85 87 85 81 93 99 95 94 93 97 96 93 91 83 81 85 79 72 69 76 74 46 35 49 82 83 82 79 88 88 87 80 79
94 96 94 96 88 80 81 84 77 74 81 86 85 87 90 98 100 100 97 96 95 95 90 87 85 86 86 72 65 72 74 48 31 39 79 76 75 72 82 77 77 77 78
99 98 94 90 91 93 93 85 81 80 80 80 78 82 86 90 90 96 96 95 97 96 85 88 88 87 86 72 62 69 68 45 28 39 78 82 65 73 68 72 76 71 79
100 100 98 97 88 84 86 92 92 94 94 92 83 82 87 80 82 89 90 87 97 95 88 87 89 85 86 81 60 60 60 38 27 37 72 80 77 62 80 64 74 68 66
95 98 99 98 99 98 97 96 97 96 96 88 86 90 91 83 89 89 95 86 87 95 90 88 89 86 86 84 69 62 53 38 28 36 55 73 75 58 87 76 72 81 75
98 98 97 98 98 98 98 97 97 97 96 96 90 83 90 84 87 85 85 98 90 86 88 90 91 90 88 84 77 76 57 38 28 27 41 59 65 60 82 86 78 72 83

GFSGL_925_rhum_045.txt.gz
RH
43 40 42 44 44 43 45 47 47 48 54 61 71 73 64 78 80 74 79 76 62 66 69 68 66 69 64 63 61 59 59 61 58 49 49 53 61 65 63 62 61 64 56
45 40 28 24 26 37 37 35 35 36 39 52 85 89 89 92 92 88 86 67 59 66 66 68 65 64 66 63 62 61 59 60 60 55 55 58 57 64 66 67 65 58 54
25 24 24 30 36 38 37 38 41 45 49 61 90 98 97 94 84 94 76 59 62 70 70 70 70 71 68 66 68 66 65 66 64 67 62 55 55 64 68 64 64 65 63
25 26 30 43 42 41 43 45 48 56 71 86 92 97 100 100 99 94 68 70 72 74 78 80 78 77 75 74 75 76 81 76 75 66 58 52 53 56 59 71 61 59 62
29 32 44 47 46 44 47 50 55 70 97 98 100 100 98 89 87 83 75 78 80 80 81 81 80 84 90 86 77 71 76 74 68 68 61 58 58 58 56 59 64 65 64
35 37 43 50 52 49 53 56 78 92 97 80 81 79 88 86 78 74 76 82 83 76 67 63 62 66 68 82 86 88 88 84 82 78 74 68 66 57 62 68 72 74 67
42 50 55 57 56 59 71 81 84 91 84 84 88 89 88 81 70 66 68 79 74 71 64 62 64 69 79 79 81 84 83 88 95 98 93 82 68 64 64 74 70 81 69
54 55 57 63 63 77 85 83 89 97 100 93 98 88 78 79 67 67 69 82 78 69 68 70 73 77 80 91 85 96 82 74 74 82 94 92 89 86 82 79 79 78 78
58 67 70 74 82 87 84 88 90 99 96 99 98 83 79 77 69 72 78 87 82 79 81 78 80 82 93 93 93 87 81 74 81 88 90 94 97 98 99 98 94 92 76
74 80 83 88 94 92 92 88 91 81 79 87 85 83 72 74 74 74 84 93 93 85 79 75 83 90 92 93 93 93 87 83 82 83 82 82 88 99 96 99 89 92 69
84 86 91 98 100 99 94 87 83 94 92 97 97 75 77 79 79 79 86 92 92 89 79 75 78 89 90 88 91 90 97 98 94 90 87 83 84 90 97 98 97 98 87
92 95 89 84 86 99 95 82 84 100 99 89 81 82 82 80 81 86 86 96 95 90 84 82 83 87 88 89 91 95 98 99 94 90 87 84 84 86 91 98 99 97 98
92 94 86 83 90 98 95 96 96 97 100 99 91 85 85 91 93 89 89 85 97 92 88 84 88 90 88 89 92 94 98 96 91 90 87 87 91 97 100 98 100 96 96
92 92 94 91 93 100 100 99 95 95 91 87 85 86 89 90 92 100 93 98 98 88 89 80 74 83 78 82 84 85 87 81 89 95 93 94 97 98 98 99 99 99 99
86 93 97 100 100 100 97 88 86 88 88 93 87 93 93 88 88 90 91 96 93 87 79 85 73 79 75 71 78 80 75 68 82 98 96 93 93 94 94 99 98 96 94
92 91 98 100 100 100 92 84 76 72 75 76 84 95 96 84 90 95 98 94 88 80 79 80 80 84 82 73 77 78 76 70 81 97 98 96 94 94 93 90 92 91 89
90 97 99 100 100 100 98 88 80 76 70 75 79 85 81 80 84 88 98 93 89 81 84 81 89 84 83 74 72 76 72 74 79 98 100 100 100 95 92 89 87 85 82
86 90 94 100 99 97 97 100 94 85 81 83 83 83 80 76 85 98 100 96 92 91 90 84 86 90 81 72 69 73 68 74 73 86 100 100 100 99 93 90 89 88 79
95 98 97 89 95 90 98 100 95 90 85 85 88 90 82 83 90 95 100 100 94 90 92 88 89 90 87 80 86 89 92 81 74 81 100 99 100 99 93 91 92 94 86
86 88 89 98 98 92 92 90 86 88 85 83 82 87 90 83 99 100 100 100 100 100 99 97 91 91 95 91 91 94 92 86 75 74 95 100 100 97 96 94 93 87 77
92 99 91 92 99 98 97 92 89 88 90 88 85 93 81 95 100 100 100 100 97 100 100 100 100 97 95 95 90 88 93 92 82 77 92 96 99 95 94 92 89 85 83
100 100 100 100 100 100 100 99 93 92 90 88 87 92 77 88 99 99 99 97 95 96 96 98 99 98 95 94 91 92 94 94 85 76 92 100 95 94 92 86 85 84 85
99 100 100 100 100 100 100 100 100 100 97 96 94 94 94 94 93 98 94 88 89 94 97 96 88 85 83 78 71 57 85 93 68 33 60 100 96 88 97 88 85 79 79
100 100 100 99 100 100 99 99 99 99 98 99 100 100 100 94 84 86 83 82 90 94 93 96 89 83 85 80 78 59 55 56 44 32 46 77 98 85 96 91 87 92 85
98 99 99 98 99 98 99 99 99 99 98 99 99 100 100 97 99 91 86 84 89 98 87 92 91 85 86 82 80 71 68 54 41 30 40 57 90 65 91 96 92 87 91
94 98 100 99 98 98 98 97 98 99 99 99 99 99 99 99 96 96 87 85 87 92 97 88 86 87 87 86 84 75 75 61 41 30 31 48 81 90 94 98 89 90 92

GFSGL_925_rhum_048.txt.gz
RH
50 52 49 45 40 40 42 41 41 42 38 38 40 47 52 55 64 67 70 65 70 64 58 57 52 50 49 46 45 44 43 41 40 38 36 36 38 41 43 51 57 49 44
54 38 34 36 38 36 37 38 41 41 44 47 53 59 59 65 73 80 78 86 79 67 56 55 53 50 50 48 46 45 46 45 44 44 41 42 42 42 43 46 53 52 47
29 30 31 33 34 35 38 41 44 49 53 55 60 62 63 72 80 89 89 96 80 64 59 59 58 55 52 50 50 50 48 48 50 55 52 48 46 46 46 49 57 53 50
30 28 27 34 40 40 43 47 51 56 60 64 65 76 94 98 98 97 88 74 69 63 64 63 59 58 57 58 56 53 48 47 50 69 64 53 50 48 49 50 48 51 51
30 28 30 41 44 45 48 54 57 63 65 68 75 86 91 89 78 76 71 66 63 61 59 56 51 54 64 69 69 62 61 58 57 60 58 58 57 54 51 49 49 49 52
31 32 35 42 46 50 53 58 60 60 62 70 68 70 72 68 75 74 71 63 61 56 52 50 48 49 52 71 75 80 80 74 68 69 69 68 64 61 59 60 67 56 62
35 33 36 40 46 51 54 58 60 62 67 72 77 76 74 73 76 70 65 63 62 57 56 52 51 49 59 60 66 77 81 97 97 94 83 73 79 79 73 69 60 60 59
37 38 41 45 49 52 59 61 59 64 76 82 90 90 77 70 72 66 66 67 65 62 60 61 58 59 62 83 75 82 77 72 76 73 76 85 81 73 72 85 91 77 67
38 45 49 56 57 60 60 62 62 67 68 63 89 88 77 73 75 70 72 71 72 72 67 63 64 66 75 84 86 85 80 78 72 86 85 89 91 92 91 98 83 82 82
45 54 57 60 64 66 68 67 66 65 67 69 69 75 80 78 81 75 74 79 85 78 68 62 62 76 87 84 84 87 87 82 75 77 76 74 76 76 91 98 91 86 66
55 62 64 65 65 68 79 79 67 64 84 93 98 97 79 80 87 84 78 90 84 80 73 63 63 77 83 85 86 85 90 87 85 89 82 81 85 77 74 82 88 99 93
62 66 68 66 64 65 73 69 67 71 91 99 96 95 86 88 84 86 84 85 84 86 81 70 73 82 83 87 88 90 87 88 88 82 85 85 82 82 81 84 90 94 98
67 67 67 66 66 64 71 73 80 77 80 87 92 83 80 81 75 86 85 89 84 93 82 81 84 81 77 75 78 85 83 71 70 71 84 85 89 92 96 98 96 98 97
65 69 86 94 80 72 74 72 73 74 76 79 82 88 89 88 75 82 94 92 98 94 82 77 81 70 73 68 66 68 68 66 68 76 84 87 88 91 93 94 93 86 98
64 69 77 81 89 85 77 72 68 66 67 69 69 90 93 89 89 86 80 82 89 82 80 82 70 69 59 55 58 63 64 62 59 74 84 82 84 83 86 91 89 86 91
68 66 75 87 84 85 83 80 76 76 74 68 75 78 84 89 81 81 90 98 97 92 81 75 73 76 72 62 60 61 62 62 59 69 75 77 81 86 85 85 85 86 87
77 76 80 86 86 84 83 81 84 72 81 82 79 74 76 78 82 84 96 98 95 94 84 75 79 76 77 64 57 56 56 60 71 63 75 75 75 76 85 87 83 83 81
86 86 94 88 86 90 91 90 80 83 83 73 74 87 84 86 78 78 97 100 87 95 88 83 79 77 74 63 57 58 62 70 69 66 74 81 79 75 72 76 83 83 76
76 79 89 94 94 91 92 90 91 87 84 78 70 73 91 82 84 82 96 97 84 83 85 78 77 79 74 71 71 80 82 81 82 78 77 80 82 77 71 69 68 72 69
74 83 93 96 92 91 90 89 94 90 84 82 82 74 76 99 94 93 97 96 97 92 87 83 81 80 81 79 81 82 81 78 74 68 72 80 81 80 74 72 70 68 63
76 76 85 91 96 93 98 96 94 95 92 85 85 86 83 79 79 88 89 96 95 93 93 94 90 89 88 88 83 79 78 81 78 74 73 77 82 80 75 73 70 67 65
95 99 100 99 98 99 96 97 98 95 91 92 90 89 88 95 90 82 86 89 90 96 98 98 98 91 89 86 81 85 83 82 82 82 78 82 79 75 76 75 72 71 67
94 94 95 98 98 97 97 96 99 98 96 96 94 95 94 96 95 91 87 88 94 98 100 100 100 100 98 100 98 91 85 82 85 90 78 84 79 76 79 76 74 72 72
87 93 93 93 94 91 93 96 97 97 97 98 98 98 98 98 97 97 95 87 85 94 100 100 100 100 100 100 100 100 93 95 98 85 67 88 82 78 77 77 74 78 75
91 93 92 91 92 94 95 94 94 95 96 97 97 98 98 97 98 97 96 97 93 97 100 100 100 100 100 100 99 100 95 72 61 63 74 94 89 90 84 80 82 74 79
97 90 93 96 93 93 97 98 95 92 91 93 95 95 95 97 97 97 97 96 97 98 100 100 100 95 93 91 91 83 72 68 66 43 40 86 86 81 81 83 85 76 77

GFSGL_925_rhum_051.txt.gz
RH
46 50 52 44 37 35 36 35 34 37 36 37 39 40 43 45 44 45 58 61 56 58 58 65 60 54 53 51 48 45 38 38 41 41 39 38 39 39 39 41 43 45 47
49 49 34 33 33 32 30 32 35 38 41 43 44 46 47 45 45 52 57 59 64 67 71 68 66 58 57 52 43 38 40 40 42 44 42 40 42 46 44 47 46 45 49
36 26 27 28 27 29 31 35 38 41 45 48 49 49 49 60 76 77 77 76 84 79 71 64 63 61 50 43 44 46 45 43 42 42 41 45 51 53 49 47 47 48 48
26 25 23 25 31 34 36 39 42 46 51 50 50 53 71 84 74 74 77 76 73 70 68 65 55 47 47 54 53 51 48 48 47 45 43 45 49 50 51 50 52 50 52
28 24 23 29 34 35 38 43 47 50 50 48 51 57 69 72 73 63 67 70 64 61 55 45 44 47 47 51 58 57 61 57 54 52 53 55 54 52 57 60 58 56 59
25 25 26 29 32 34 38 44 46 48 47 50 61 70 73 72 75 66 65 63 57 52 45 46 47 46 43 51 56 70 75 65 64 65 66 69 72 58 60 85 85 75 72
27 25 27 30 33 35 36 40 45 48 49 59 70 71 81 78 91 70 63 66 59 50 51 51 50 46 52 59 64 61 61 72 87 85 83 72 83 88 85 76 67 65 70
27 29 30 33 38 39 42 46 47 48 51 61 70 78 84 98 83 67 65 70 56 55 56 56 53 53 57 76 73 67 72 75 72 73 72 76 78 72 74 74 75 82 88
26 30 34 38 42 46 49 50 52 50 54 61 64 74 76 98 84 72 67 69 63 66 65 58 59 57 63 68 75 76 75 73 71 84 76 76 80 86 90 94 94 93 85
30 35 41 45 48 50 53 59 60 56 52 65 73 76 93 82 92 79 75 77 79 80 66 60 60 64 72 81 80 82 80 76 66 70 73 80 76 76 93 89 95 97 92
36 42 45 49 50 51 52 58 62 55 66 80 85 87 87 95 95 94 82 83 84 80 72 65 63 70 72 75 84 84 92 84 76 85 81 74 80 80 84 83 81 83 86
44 48 50 51 54 52 53 54 56 60 70 86 88 90 86 90 92 86 81 77 83 86 80 73 74 74 82 81 81 78 74 86 83 67 67 77 77 81 83 88 88 90 92
50 50 52 59 66 62 54 54 60 72 76 83 92 96 91 94 86 89 85 82 81 92 84 80 77 84 78 71 69 69 76 71 66 64 65 75 81 84 91 94 89 83 83
53 53 55 60 67 74 70 61 63 71 73 70 70 74 78 83 82 79 99 98 94 93 94 92 79 74 69 59 68 62 67 68 64 62 65 75 82 81 80 83 92 86 92
52 53 57 59 72 80 83 80 73 67 64 67 67 69 73 88 81 90 86 79 89 95 91 82 76 75 70 65 60 59 60 60 60 60 66 65 64 73 78 80 88 86 85
59 61 60 67 74 80 82 80 80 81 75 75 72 68 68 75 81 84 79 75 82 94 89 77 73 85 77 76 64 61 61 60 61 65 64 67 66 66 68 81 82 84 86
66 67 68 68 73 80 85 82 83 80 81 81 83 81 78 73 75 82 87 93 96 99 95 79 81 86 82 76 65 59 58 61 73 66 66 70 73 70 70 72 78 78 73
68 66 69 79 86 84 84 90 91 92 90 83 83 81 87 83 80 77 82 90 92 98 86 76 78 88 80 71 61 60 65 74 80 74 73 75 78 74 71 64 62 67 71
64 63 69 77 85 88 91 91 90 94 92 88 84 82 81 84 83 81 88 90 85 90 84 91 93 84 82 75 75 81 84 80 84 84 78 77 78 76 71 67 65 66 63
61 58 61 75 88 89 88 93 88 90 90 90 90 84 84 88 99 98 93 89 92 86 86 84 87 86 87 83 86 91 92 87 82 75 75 79 78 77 72 71 70 65 60
63 62 72 81 82 87 92 97 95 98 95 91 90 91 88 92 92 87 91 89 95 96 89 87 90 92 95 94 88 88 86 84 83 78 80 79 80 79 72 71 70 67 62
74 80 88 94 96 96 93 88 86 89 91 97 94 91 95 97 96 90 87 87 85 86 92 90 90 93 94 93 88 90 89 91 86 82 84 81 78 75 73 72 70 72 69
91 92 90 90 91 91 95 95 94 96 94 95 97 98 98 98 98 96 93 92 92 91 90 90 90 92 96 96 98 94 87 82 86 90 88 82 78 75 78 74 70 70 73
97 98 95 94 87 87 87 91 94 95 96 97 96 97 97 98 98 98 98 98 97 96 96 88 89 89 94 96 100 97 93 89 93 95 82 84 81 75 77 74 71 73 74
98 97 98 98 97 97 97 95 96 98 98 95 92 92 92 94 95 94 96 98 98 98 97 97 92 94 92 97 96 93 97 94 95 96 93 90 88 88 86 79 79 75 75
97 98 98 97 99 97 95 92 90 93 95 98 96 98 96 90 88 88 89 90 95 98 98 97 95 96 95 96 97 99 99 93 69 66 56 82 86 84 81 79 79 80 72

GFSGL_925_rhum_054.txt.gz
RH
47 47 46 51 52 37 35 35 34 35 37 39 42 44 45 47 46 48 55 56 60 63 65 66 70 68 65 59 58 56 52 50 55 48 46 45 45 44 45 50 51 50 47
48 48 51 45 34 33 32 30 32 36 39 42 46 48 49 52 67 71 74 76 73 70 74 77 75 71 65 61 58 52 54 53 51 54 49 47 46 47 50 53 52 52 50
47 42 33 28 28 27 30 32 36 38 42 46 50 50 50 61 58 67 73 71 73 71 70 71 67 62 61 52 55 54 52 53 54 57 56 52 49 49 51 53 53 53 55
40 26 25 24 27 34 36 37 39 42 46 50 50 49 55 65 70 68 66 64 73 71 71 69 64 54 49 49 48 50 54 59 61 61 59 56 56 56 55 60 65 62 62
27 26 23 26 31 33 35 37 43 46 48 50 49 57 63 70 72 71 71 65 69 70 63 54 46 47 46 47 47 52 64 70 70 64 65 65 68 71 71 66 72 85 76
28 25 26 28 30 32 34 36 38 42 44 47 53 64 72 73 72 77 69 62 64 61 55 50 49 48 48 52 68 66 65 70 74 80 89 88 86 68 83 98 94 81 77
28 26 26 29 32 35 37 39 41 45 47 50 59 64 65 70 78 94 96 59 65 60 55 54 54 52 53 57 60 66 63 64 72 75 88 97 98 93 85 82 77 77 79
26 28 29 32 35 38 42 45 48 51 52 52 59 60 70 78 83 98 94 64 65 63 60 62 60 58 59 59 65 67 61 75 74 74 87 92 86 78 77 85 91 95 95
28 30 32 36 42 45 46 50 54 59 61 57 57 63 71 85 96 83 70 70 70 74 73 64 64 61 61 64 66 65 76 79 75 73 68 72 80 83 84 91 99 98 89
30 36 41 46 45 47 49 51 54 59 61 63 71 71 79 89 98 88 78 79 75 82 72 72 66 67 67 71 74 73 87 90 87 66 79 84 78 77 82 88 96 98 96
31 42 44 45 47 48 50 51 53 56 60 70 78 66 74 78 98 93 88 81 73 83 89 76 74 81 78 73 74 76 85 86 70 84 89 72 80 82 82 80 82 91 98
45 46 48 48 52 57 62 62 56 56 66 77 89 80 73 75 87 89 88 84 75 79 80 82 80 84 71 75 73 69 78 74 84 77 68 74 77 86 86 84 92 95 94
47 47 49 50 54 61 64 69 67 62 68 66 75 83 81 81 80 81 96 89 83 80 77 76 82 76 80 80 69 64 64 74 84 70 70 71 73 76 82 84 82 78 81
49 51 52 53 55 62 70 76 78 78 73 79 81 80 84 87 78 80 84 94 96 92 83 90 97 77 74 76 70 65 63 66 66 64 65 67 73 70 70 80 86 93 90
46 49 54 58 61 67 68 72 72 75 79 79 82 76 75 77 80 83 88 98 91 94 98 90 82 78 83 77 74 69 64 64 65 66 66 68 73 76 76 73 86 88 89
57 65 65 66 69 67 69 78 82 74 72 71 73 78 79 76 69 68 78 81 82 74 87 91 89 83 86 88 80 74 66 63 66 65 72 69 76 80 82 80 82 82 86
60 65 67 70 70 74 73 78 90 87 84 83 82 78 77 80 82 81 76 78 91 91 100 95 81 87 86 85 79 73 64 62 69 81 80 75 83 79 81 85 76 75 76
62 68 67 66 73 74 83 89 88 90 91 88 84 82 81 79 82 82 80 80 94 97 98 99 91 88 83 83 76 71 67 75 75 91 77 82 85 83 79 82 78 76 72
70 71 67 66 68 68 76 87 91 92 93 92 90 88 86 82 80 82 86 94 96 88 91 100 93 88 94 93 80 79 84 82 80 78 82 87 81 87 80 78 74 77 71
68 67 66 64 65 79 87 93 92 92 99 100 97 90 88 98 98 93 92 96 100 97 91 85 87 80 86 89 91 89 91 84 84 92 87 79 85 86 77 78 75 75 75
76 75 73 70 72 86 97 93 93 93 94 94 94 94 94 99 98 98 98 98 98 99 96 93 91 88 89 91 89 87 85 90 84 82 85 79 88 75 83 75 78 74 75
93 96 89 96 98 92 96 90 93 90 87 89 89 88 90 99 99 100 98 97 95 96 96 98 97 95 90 94 91 88 89 90 84 88 87 91 83 81 84 76 80 73 75
92 98 100 99 98 91 99 98 98 96 96 98 97 99 97 98 99 99 99 95 97 97 96 96 97 97 92 94 94 90 87 92 86 83 88 90 83 82 83 77 78 74 77
93 94 100 100 99 98 98 98 98 98 98 98 99 98 97 95 94 93 94 98 99 98 98 98 97 96 96 96 95 95 91 84 88 94 90 82 83 83 80 80 78 78 76
95 98 99 98 97 96 96 96 96 96 96 96 97 97 97 96 96 98 94 91 94 93 99 99 98 97 97 96 96 97 93 85 87 89 85 77 68 88 80 78 82 74 76
99 98 97 96 96 95 95 94 93 94 96 95 97 95 96 97 98 96 93 98 95 89 92 96 98 98 97 96 97 97 97 94 91 85 83 76 85 90 86 85 83 74 76

GFSGL_925_rhum_057.txt.gz
RH
48 48 46 44 49 54 42 37 36 35 36 38 40 44 47 49 53 58 63 66 71 73 72 72 76 74 72 72 77 73 61 54 64 59 54 54 54 51 50 49 49 50 50
47 44 48 51 44 37 35 32 34 36 38 41 44 47 49 51 53 57 52 58 69 73 68 70 70 75 67 64 62 55 52 49 56 66 64 61 60 57 54 52 50 52 56
49 41 36 46 40 28 32 35 37 38 40 43 47 49 50 60 59 58 56 68 62 61 70 72 72 68 67 56 50 47 45 48 54 63 69 65 61 61 61 60 62 62 61
36 39 39 30 30 35 36 36 37 41 44 46 47 49 58 62 66 67 68 61 66 71 70 71 66 60 48 47 47 47 52 58 66 69 72 70 69 70 72 76 73 73 82
36 26 26 29 31 32 32 34 36 37 40 44 47 58 59 64 63 70 71 74 69 66 67 57 51 49 49 49 51 56 64 67 67 74 77 82 84 85 88 80 96 90 78
26 26 26 27 29 31 33 37 41 44 43 46 50 59 62 60 62 69 76 78 87 97 64 58 53 53 50 55 61 66 65 67 67 81 86 89 90 93 97 91 87 82 78
27 27 28 29 32 36 40 45 47 48 55 56 60 58 59 66 71 74 79 89 89 89 63 62 59 59 60 60 60 59 60 62 47 75 79 86 98 93 86 86 84 91 93
27 28 31 33 32 42 46 47 49 54 54 54 58 62 62 64 69 77 84 93 71 69 70 68 66 65 64 63 62 64 65 50 44 80 84 79 72 74 88 95 95 97 98
35 34 36 37 47 47 47 48 50 52 52 52 65 65 66 66 76 85 94 72 72 69 71 73 67 70 65 67 67 70 63 39 64 86 71 73 77 88 87 91 98 98 89
40 55 46 51 52 51 49 50 52 52 52 56 64 70 68 67 85 92 92 78 78 76 69 71 76 72 71 73 76 71 66 50 76 72 77 67 61 77 79 81 90 98 97
41 46 52 51 50 50 52 56 61 65 62 71 74 74 71 67 66 83 95 96 86 81 69 78 84 76 83 86 74 70 63 69 81 76 84 66 66 71 70 71 79 95 97
50 53 52 50 50 52 55 59 61 65 73 68 68 63 57 64 69 81 87 91 92 88 76 71 70 85 92 79 68 68 66 70 70 76 86 66 70 67 73 71 71 77 79
50 49 50 51 52 54 58 64 68 70 76 77 80 72 70 70 78 81 84 87 92 93 90 80 73 80 76 75 71 74 74 72 70 75 78 70 63 68 75 70 69 71 80
46 48 49 52 55 58 61 67 70 69 70 70 86 93 97 98 93 84 76 83 89 96 97 89 85 90 87 70 83 74 71 64 64 71 69 64 64 71 74 70 81 88 96
42 46 53 54 58 65 68 69 65 68 71 68 69 71 79 88 84 83 75 80 98 99 100 98 99 95 76 73 84 79 73 70 65 67 67 69 71 80 72 71 82 95 96
48 48 49 56 64 66 68 70 69 68 68 72 72 77 76 77 80 80 79 73 76 86 99 96 88 84 81 78 84 92 74 73 66 67 70 82 74 86 79 74 84 88 86
44 48 54 62 67 68 70 72 78 66 70 78 81 79 80 82 81 80 83 91 85 88 100 97 94 87 78 71 87 86 77 72 65 72 77 85 73 89 84 80 85 85 88
61 63 66 68 69 70 68 71 74 87 91 90 83 82 80 78 80 81 84 97 98 93 100 100 97 89 86 82 83 81 78 71 71 72 68 74 80 89 91 79 82 79 86
84 81 78 76 79 80 85 95 80 91 98 97 94 88 88 88 86 81 87 99 98 98 94 100 99 94 88 82 79 91 87 77 80 74 71 81 92 86 90 75 84 77 76
79 82 84 90 94 100 98 96 99 98 99 99 99 98 89 91 100 95 92 98 98 98 97 96 93 89 91 90 83 90 93 89 85 76 82 95 85 88 83 79 80 87 76
92 93 90 85 83 96 100 100 98 97 94 90 85 80 85 90 100 100 100 96 96 100 98 96 96 95 90 87 88 91 94 88 83 82 89 86 80 84 76 88 80 85 76
79 91 94 94 88 87 99 98 97 97 92 94 90 91 89 93 100 98 100 99 98 97 97 97 96 96 96 91 92 96 94 89 83 83 82 85 84 87 79 91 83 78 76
96 98 98 100 98 98 100 98 98 99 99 98 98 100 100 98 98 97 96 97 99 98 98 98 97 97 95 97 97 94 94 89 79 81 80 84 88 84 83 82 80 79 78
100 99 99 98 98 97 97 97 96 96 96 95 92 95 95 95 97 96 94 96 98 94 96 99 98 98 97 97 97 96 94 92 89 86 86 86 88 76 83 83 80 83 80
100 100 99 98 97 98 97 98 96 97 95 96 99 100 99 97 95 91 90 89 91 92 98 97 98 99 99 98 97 96 96 97 97 92 88 90 86 72 86 86 75 81 80
100 96 97 100 100 100 99 98 97 97 97 98 99 97 97 100 100 98 92 94 93 93 95 98 100 99 100 100 98 97 96 97 97 95 89 84 76 56 80 78 86 87 78

GFSGL_925_rhum_060.txt.gz
RH
52 50 47 44 50 59 54 48 41 37 36 36 37 40 43 46 48 52 55 56 53 50 60 70 74 78 74 75 79 81 90 68 64 56 52 51 53 54 49 45 54 53 50
50 46 47 57 59 57 40 37 35 36 37 38 40 42 45 48 52 58 57 58 56 62 57 70 74 70 73 68 66 58 52 48 52 60 62 62 60 54 56 58 56 57 62
47 50 55 59 53 34 36 35 37 38 40 42 43 45 47 49 54 61 61 60 62 64 59 66 72 73 70 68 55 48 48 49 54 66 71 65 62 65 70 70 67 71 71
51 47 49 35 35 37 37 37 37 38 39 42 44 47 49 51 60 64 62 70 72 66 72 74 73 69 59 50 48 49 50 56 63 66 68 70 76 80 82 85 92 87 83
46 37 33 33 32 31 30 28 29 32 37 44 45 51 53 62 64 60 64 68 74 74 74 74 80 53 51 52 50 52 59 64 64 67 73 82 85 86 90 98 94 89 82
28 28 29 28 28 26 34 46 43 43 46 51 53 55 64 64 62 62 65 72 77 81 80 90 74 60 54 52 57 61 61 64 69 68 75 92 91 94 95 85 88 91 86
27 28 28 30 34 45 53 45 44 48 56 56 53 54 62 62 64 66 72 78 84 89 90 73 66 62 62 63 62 63 65 66 65 42 71 84 98 84 81 87 94 98 94
29 32 36 44 55 49 44 45 49 52 52 51 52 52 60 65 66 65 70 86 92 84 70 72 71 69 67 68 68 68 67 70 53 48 87 88 78 92 92 96 98 98 99
37 46 54 51 45 44 48 52 52 55 55 53 52 55 59 67 67 67 84 96 93 70 70 74 74 70 72 70 70 72 75 66 46 66 79 76 71 77 80 88 93 98 90
44 59 55 50 46 50 54 52 54 57 62 63 62 66 69 72 67 66 75 86 90 81 82 78 71 74 76 73 77 81 73 56 61 68 70 72 68 63 62 70 80 98 96
50 48 48 48 50 50 52 53 54 56 55 58 73 80 77 68 63 70 76 92 92 96 92 87 71 76 82 79 86 86 70 65 64 73 76 76 77 69 62 70 72 80 100
45 44 47 49 50 52 54 55 56 59 65 66 72 75 79 81 76 70 71 84 82 91 92 91 83 78 74 83 92 80 73 78 80 78 76 74 76 64 67 71 64 65 75
46 48 47 48 50 52 56 58 59 63 68 68 68 70 69 74 73 84 87 88 89 96 93 92 92 93 76 87 79 77 75 78 77 80 76 70 70 65 70 70 63 78 80
46 45 44 46 48 52 56 60 65 68 69 70 67 76 70 69 74 77 76 90 93 89 85 97 99 98 89 84 91 74 76 78 74 67 68 71 67 72 74 72 76 85 94
43 43 43 45 49 52 53 56 62 65 67 69 66 67 74 80 74 70 75 81 86 89 98 100 100 98 97 91 90 75 78 87 79 72 69 70 72 76 79 76 76 87 96
58 57 54 55 56 57 58 60 62 64 64 69 70 71 70 74 75 80 86 87 92 97 98 100 98 91 93 94 83 78 72 93 80 76 70 71 79 76 86 84 78 84 93
87 87 86 85 85 85 82 83 88 80 76 71 76 74 78 76 81 82 82 88 92 99 99 98 100 96 92 90 85 80 74 82 80 75 68 74 79 74 88 91 78 84 88
57 66 80 88 94 95 97 95 94 98 95 92 91 83 83 87 82 88 93 99 99 100 100 99 98 98 96 93 87 83 76 82 88 73 73 74 76 80 90 89 79 85 88
89 95 95 96 98 95 88 81 85 95 98 99 99 98 89 85 76 86 93 100 99 99 100 99 96 98 96 90 87 84 81 82 93 79 85 75 79 84 88 86 78 83 88
77 75 76 83 84 80 86 87 82 89 95 99 98 90 78 85 96 99 88 90 100 100 99 97 96 97 97 95 86 86 89 90 98 88 90 77 86 85 89 81 85 89 87
92 95 96 99 98 98 99 99 94 97 98 97 90 84 90 98 98 100 100 100 100 100 99 97 97 97 97 97 96 93 93 92 95 94 93 82 87 87 82 80 87 91 79
98 100 100 99 98 97 97 97 99 98 98 97 98 97 95 97 100 99 98 98 98 99 100 98 98 97 97 97 96 97 96 94 94 94 92 85 87 86 85 80 86 86 81
100 96 100 100 100 100 99 98 97 97 96 97 97 96 97 99 99 98 96 95 95 95 97 99 99 99 97 97 97 97 97 95 91 91 93 86 86 86 87 80 82 82 81
96 82 99 100 100 100 100 100 100 100 100 100 100 100 98 98 97 98 89 91 91 88 90 96 97 99 98 98 98 98 97 97 97 96 96 87 86 89 88 81 83 83 83
100 85 89 100 100 100 100 100 100 98 100 100 100 98 95 98 99 97 87 81 89 92 92 93 96 96 97 98 98 98 97 97 97 97 96 96 89 91 89 76 87 81 80
100 92 89 93 100 100 100 100 100 100 100 100 99 98 98 96 100 98 91 84 80 85 95 95 96 96 98 97 99 98 98 98 97 97 97 96 94 92 80 77 78 84 81

GFSGL_925_rhum_063.txt.gz
RH
51 49 46 47 49 60 64 64 68 61 43 40 40 40 40 43 47 48 52 56 57 57 56 59 58 72 79 75 76 83 82 92 97 62 55 53 57 57 49 41 48 54 57
53 51 49 53 63 63 80 59 44 41 40 39 39 39 41 45 48 47 52 59 61 59 59 63 59 70 76 75 71 68 62 56 54 59 58 62 60 53 52 62 57 64 74
55 54 62 64 72 54 40 39 38 38 39 38 39 44 47 48 50 50 58 63 62 62 69 69 66 71 75 74 72 63 53 50 53 63 70 67 62 51 66 69 74 76 78
54 58 63 62 46 38 39 38 38 36 34 41 44 46 51 53 53 57 64 64 63 69 73 70 77 78 76 75 70 53 52 51 57 66 67 67 62 56 79 84 93 88 75
60 61 57 46 38 37 35 30 29 36 41 44 46 48 50 53 60 66 64 61 65 67 74 75 77 80 85 66 58 53 51 58 65 68 72 70 72 80 91 95 95 86 81
56 46 40 35 32 30 38 46 46 44 41 46 52 54 52 56 64 68 66 68 68 71 75 82 84 86 76 68 57 52 60 63 66 74 71 71 76 90 94 89 96 98 88
40 35 33 30 34 47 53 45 40 41 46 51 52 52 52 51 54 64 68 69 72 81 91 90 86 70 64 61 60 65 66 68 70 73 60 60 90 90 90 97 99 100 96
33 32 35 43 54 48 44 41 44 49 52 55 56 56 56 55 56 62 66 69 74 82 86 95 73 70 70 70 70 70 70 70 75 62 53 80 82 90 89 91 98 94 94
38 47 51 53 48 46 44 44 48 50 53 55 57 60 62 63 65 69 70 71 78 90 90 85 81 80 73 71 78 75 73 77 70 51 71 83 82 86 73 81 71 98 92
55 60 61 54 46 45 47 48 51 54 54 55 52 54 56 72 78 77 70 77 89 91 90 84 91 86 73 74 78 75 82 80 64 59 66 68 70 75 71 63 74 100 100
55 60 51 47 46 47 49 51 54 56 57 57 58 62 63 67 78 78 76 87 86 91 92 86 90 88 91 79 81 82 85 83 74 69 70 71 71 73 72 64 68 72 93
52 46 45 45 46 48 52 53 56 58 60 60 63 67 68 60 60 65 74 85 85 94 92 84 85 88 98 86 82 82 90 90 89 92 90 81 76 72 68 69 70 64 76
41 43 43 43 45 46 49 50 54 55 60 62 64 68 67 64 59 64 66 73 88 99 98 96 92 91 98 97 89 80 93 93 85 91 87 78 67 73 69 71 69 66 76
50 50 50 50 48 48 48 50 54 57 58 63 73 78 72 68 64 63 67 70 74 79 80 87 95 98 98 98 98 93 87 91 79 86 79 73 71 70 73 74 79 74 83
63 67 70 73 74 74 74 78 79 77 76 73 74 75 82 81 68 64 70 76 79 83 86 97 98 100 100 99 98 96 86 87 81 88 88 77 73 71 78 77 82 80 92
60 57 58 61 66 76 84 84 80 80 81 87 86 86 88 90 92 76 78 84 87 91 99 100 98 100 100 97 96 91 86 82 78 84 92 82 74 76 79 81 84 80 88
63 70 78 88 97 98 97 98 91 85 82 76 75 82 88 88 97 98 98 95 92 98 100 100 100 100 100 96 96 96 92 83 72 83 93 81 73 82 76 83 86 82 84
56 59 72 82 88 90 99 94 87 81 85 81 76 83 92 95 100 99 98 98 100 100 98 100 100 97 100 97 96 96 94 86 80 79 90 83 78 85 79 81 88 83 87
72 88 93 96 98 99 99 98 96 94 95 95 93 90 98 97 95 95 94 96 100 100 97 99 98 98 97 96 96 96 92 86 82 82 90 89 86 89 83 80 89 84 88
87 92 92 100 100 99 98 96 94 95 95 96 97 98 96 98 96 95 99 100 99 99 97 97 97 97 98 97 97 96 96 88 87 90 94 95 94 88 89 83 86 90 88
100 99 80 94 100 100 100 99 100 99 99 98 97 97 96 97 98 100 99 98 96 97 98 98 98 97 98 97 97 97 96 93 87 89 92 96 96 88 89 86 85 87 89
90 73 81 100 95 100 98 100 100 100 100 100 100 99 96 94 96 96 96 95 96 96 96 96 97 100 98 97 97 97 97 96 94 92 94 96 97 88 91 87 83 86 86
86 76 78 88 93 100 92 100 97 100 100 100 100 100 100 100 98 95 94 91 88 94 95 95 96 95 97 100 98 97 97 96 95 96 96 96 96 90 89 89 81 82 84
92 79 80 89 94 100 94 100 100 94 100 96 99 100 100 96 100 97 95 92 81 83 90 96 97 96 96 95 99 100 97 97 97 97 98 97 96 88 91 90 82 82 84
93 82 83 88 97 100 95 100 99 96 99 97 97 100 100 99 97 100 97 94 75 72 70 86 96 97 95 95 96 97 98 98 97 97 98 97 95 90 91 89 80 85 83
82 83 87 90 90 86 92 100 99 91 100 100 97 100 100 99 100 99 97 90 82 80 77 72 73 94 96 94 94 96 94 98 97 97 98 97 96 95 93 91 82 85 82

GFSGL_925_rhum_069.txt.gz
RH
100 99 98 98 98 98 91 82 69 64 72 80 87 65 52 41 41 44 47 50 52 64 70 74 72 72 69 67 71 72 70 76 71 60 71 66 61 58 58 61 58 52 52
99 100 99 97 93 93 86 69 67 67 90 76 56 45 42 44 46 48 50 55 68 76 75 77 74 70 74 74 74 73 71 73 89 70 60 56 60 59 63 64 55 52 58
90 90 90 90 83 76 72 77 77 86 73 57 44 44 46 44 49 52 56 65 72 74 76 77 73 73 72 70 73 73 71 75 78 79 66 57 60 63 61 58 52 60 62
83 86 87 86 74 80 91 92 69 55 48 45 46 45 42 43 47 52 56 60 65 75 75 72 77 73 71 71 74 77 82 82 86 79 61 58 59 60 64 58 50 53 54
88 88 87 79 80 95 78 51 53 55 42 39 41 44 45 48 50 50 54 64 78 81 80 76 74 70 69 76 79 78 78 78 76 66 58 56 58 56 56 52 59 57 60
88 79 82 94 87 58 50 50 51 45 46 53 44 47 51 51 52 52 53 68 70 74 72 73 78 70 80 81 92 98 94 75 67 62 58 60 60 59 63 62 65 62 58
84 93 86 52 40 44 55 52 47 64 67 50 50 50 53 54 51 48 48 61 71 71 74 77 76 81 73 83 84 76 69 67 66 66 74 70 70 74 62 63 64 62 60
79 59 39 41 52 52 56 70 68 49 48 53 47 52 52 48 42 44 46 49 74 78 83 82 82 79 81 86 83 74 73 75 79 78 75 73 73 72 63 72 76 77 73
41 40 55 58 56 69 68 56 48 49 49 47 51 53 53 51 47 48 51 65 75 78 84 88 87 84 86 82 89 90 84 79 76 73 74 75 79 61 81 80 80 74 70
49 60 62 62 62 56 51 47 46 48 49 50 49 48 48 51 48 48 53 76 73 71 83 90 91 84 87 82 90 99 100 87 77 77 78 79 73 76 89 84 79 78 69
63 59 57 52 51 53 49 52 54 63 63 59 61 61 64 63 63 63 65 70 84 82 77 80 89 96 80 82 87 99 98 88 88 82 80 78 74 74 78 81 81 81 76
56 56 52 52 52 53 55 59 65 74 79 75 68 76 78 79 82 80 76 80 86 97 99 88 85 99 79 88 90 90 94 92 99 95 90 85 85 83 81 82 80 81 79
52 57 58 57 54 51 56 58 58 56 64 75 80 79 83 83 78 79 76 83 80 94 100 99 98 98 90 100 100 99 98 98 99 98 94 85 83 82 86 89 86 84 86
56 57 53 49 45 52 57 60 67 74 77 75 75 79 84 78 76 79 88 90 91 98 94 100 98 98 98 99 100 100 100 100 100 97 96 89 94 98 95 88 84 79 83
53 56 58 63 68 70 72 78 83 83 87 86 84 90 94 93 95 100 100 100 100 100 100 100 99 99 100 98 99 100 100 100 100 100 98 98 98 96 93 92 88 82 80
53 59 74 75 79 81 82 81 89 86 85 87 98 98 98 100 100 100 100 99 100 100 99 100 98 99 99 99 98 100 99 100 97 98 100 99 97 92 87 94 89 85 78
68 74 78 84 83 86 85 79 75 80 90 92 95 96 99 100 99 100 100 85 99 95 99 99 98 98 98 99 98 98 97 97 98 100 100 99 99 90 98 91 85 84 79
84 64 85 89 89 85 83 85 86 84 84 82 87 94 98 97 97 100 100 92 88 90 95 97 98 98 98 98 98 99 98 100 99 99 100 100 99 91 97 90 84 85 80
79 77 89 95 95 94 92 89 87 86 85 84 82 86 97 97 95 99 100 99 98 94 96 94 97 97 99 99 98 98 100 99 99 99 100 100 100 94 96 90 86 88 87
76 61 82 91 90 91 89 91 90 88 86 88 88 92 96 92 92 94 98 100 100 99 100 99 98 98 99 98 100 98 98 99 99 100 100 99 100 99 95 97 96 90 83
78 80 72 88 90 92 94 93 96 93 92 91 92 99 99 100 97 96 97 100 100 100 100 100 100 100 100 98 99 100 98 98 98 99 99 100 100 100 100 100 99 95 88
68 76 91 94 95 99 97 96 100 98 95 94 95 94 99 100 99 98 98 100 100 100 100 100 100 100 100 100 100 100 99 100 99 98 98 98 99 100 100 100 100 97 91
70 69 90 93 94 98 99 98 100 100 97 97 98 96 97 98 100 98 100 100 100 100 100 100 100 100 100 100 100 100 100 100 100 98 96 99 99 100 100 100 100 99 93
71 80 91 96 99 97 99 99 100 95 95 96 100 100 100 100 100 100 100 100 100 100 100 100 100 100 100 100 100 100 100 100 100 99 97 96 99 99 98 99 100 97 93
75 83 87 98 100 100 100 100 100 100 100 100 100 100 100 100 100 100 100 100 100 100 100 100 100 100 100 99 88 81 92 96 97 97 97 96 98 100 98 99 100 98 94
86 86 86 85 100 100 100 100 100 100 100 100 100 100 100 100 100 100 100 100 100 100 100 100 100 96 94 100 100 87 76 82 95 96 96 96 98 99 99 98 98 98 93

GFSGL_925_rhum_072.txt.gz
RH
81 89 95 94 100 100 94 89 84 79 82 75 62 86 99 69 57 58 54 52 54 55 55 59 56 57 55 53 50 48 48 46 44 40 40 39 54 58 51 52 52 50 44
77 87 98 99 100 100 98 90 86 89 76 76 94 94 65 52 54 54 51 47 52 54 54 56 58 56 56 55 53 50 48 46 46 48 52 47 56 57 54 57 52 46 43
87 99 99 98 97 98 98 98 93 90 94 98 79 60 54 52 49 52 52 53 55 55 55 55 55 55 55 52 51 48 46 45 45 52 55 51 53 59 53 51 46 43 41
90 96 100 100 100 99 95 94 93 96 80 61 67 58 54 50 52 53 51 51 52 52 54 56 56 56 55 53 51 49 48 49 52 60 64 69 58 52 50 45 42 38 36
91 92 94 100 86 81 94 96 92 64 59 67 52 47 54 56 52 48 46 48 50 49 51 57 59 60 63 64 57 53 51 54 66 73 80 66 50 42 42 40 42 42 41
85 90 97 96 97 99 95 76 60 57 60 49 55 62 58 51 46 48 51 50 47 47 49 49 49 53 64 72 72 72 76 68 71 76 69 61 51 43 46 48 46 44 44
88 94 97 93 82 71 59 52 51 58 60 67 63 56 52 50 55 49 42 50 47 45 46 47 48 46 53 63 66 71 75 77 92 84 71 65 61 66 63 53 46 43 44
80 77 68 59 53 58 56 60 64 68 62 55 54 53 51 49 54 46 42 55 50 49 50 52 54 54 53 57 60 60 62 63 74 76 67 59 58 63 60 56 52 56 60
61 54 56 51 58 62 70 75 61 55 52 48 46 49 50 50 53 56 57 63 61 60 59 57 57 58 58 63 74 79 73 68 69 77 71 69 68 68 71 69 65 71 70
50 56 56 59 64 65 59 54 50 48 48 49 52 54 59 62 64 72 79 81 82 80 74 71 69 70 77 76 92 89 90 79 71 78 76 76 78 79 81 80 70 74 66
62 62 60 56 54 52 52 52 51 52 59 68 84 75 66 64 65 70 76 78 73 73 71 74 82 88 94 88 94 97 95 84 80 86 73 73 68 66 59 72 72 71 75
55 55 55 55 51 55 56 57 55 52 52 59 78 72 64 67 67 67 68 70 75 76 75 71 68 77 87 99 97 96 96 99 96 96 92 83 77 74 70 72 76 76 76
56 58 57 55 52 48 46 41 40 40 49 60 64 64 65 66 61 65 76 81 81 92 88 87 79 80 90 97 99 96 96 98 99 99 96 90 86 84 84 78 79 80 78
53 53 51 47 41 40 35 39 47 56 59 57 61 69 72 67 65 84 95 92 93 95 95 93 96 96 89 91 100 98 96 97 98 98 95 81 85 99 94 86 85 78 85
47 43 42 46 48 48 50 59 62 67 76 75 74 74 80 80 85 92 94 99 99 100 95 93 89 86 87 93 100 99 99 99 98 91 84 85 91 96 95 92 86 81 77
38 44 56 53 56 55 53 61 72 65 79 93 96 95 92 94 96 94 96 94 95 83 87 89 94 97 93 92 99 98 99 98 94 92 92 93 89 94 92 93 84 84 78
46 52 58 59 56 58 59 58 55 68 73 80 87 92 99 98 96 94 95 93 85 84 80 84 89 92 92 96 98 99 98 94 97 98 95 98 92 92 96 88 88 78 80
61 59 59 63 64 65 66 68 66 68 70 66 72 81 92 95 94 92 92 81 73 74 77 82 87 89 89 88 90 96 98 95 98 99 98 98 98 96 94 84 81 79 78
55 60 71 76 77 76 74 71 70 70 70 67 66 70 81 91 88 86 88 85 84 78 78 79 83 87 91 92 93 97 97 97 98 98 98 96 96 97 91 85 79 86 82
60 56 68 69 69 69 69 72 69 71 70 70 71 76 84 83 80 80 82 86 88 85 86 86 86 89 93 93 94 95 95 95 98 98 98 98 96 98 91 88 83 83 81
54 63 64 66 69 72 76 75 73 75 76 74 75 83 94 94 84 82 82 83 87 89 90 91 91 92 92 94 94 95 94 94 96 97 97 98 98 98 95 92 87 84 80
71 70 74 78 77 82 83 77 79 80 79 78 79 80 87 86 84 83 82 86 91 92 90 90 93 93 94 95 98 98 95 95 95 96 97 100 99 98 98 95 93 93 79
80 84 80 76 85 88 84 84 85 86 84 84 84 84 86 86 88 85 88 92 92 93 96 97 98 96 94 97 100 100 99 97 97 99 98 98 99 99 98 97 95 94 84
86 86 78 81 88 88 89 90 89 87 88 88 90 89 87 89 91 91 92 95 98 99 100 100 100 100 100 100 100 100 100 100 100 100 100 100 99 98 98 98 97 95 92
91 90 89 90 90 92 93 89 90 92 92 92 91 91 90 92 91 92 96 99 100 100 100 100 100 100 100 100 100 100 100 100 100 100 100 100 100 99 98 98 98 96 94
89 90 90 93 91 91 91 92 92 93 92 92 92 92 94 95 95 98 99 100 100 100 100 100 100 100 100 100 100 100 100 100 100 100 100 100 100 100 100 98 98 96 94

GFSGL_925_rhum_075.txt.gz
RH
55 68 80 89 90 93 96 98 96 89 72 76 78 81 74 79 94 70 56 52 51 52 52 53 53 52 49 47 46 44 43 42 43 40 37 36 38 41 42 51 50 50 50
54 67 90 94 95 100 100 98 91 87 86 86 84 86 100 88 67 60 56 51 49 48 50 52 49 46 47 48 48 46 45 44 44 45 41 39 39 41 47 65 56 51 44
60 87 100 100 100 98 95 89 88 88 92 98 100 98 83 72 60 52 50 51 52 51 51 47 46 45 46 47 46 46 45 41 41 42 43 42 42 43 46 54 58 50 49
93 96 100 100 100 100 99 100 94 91 93 97 94 89 77 63 52 47 50 50 47 44 43 45 46 47 47 47 47 47 45 44 43 42 42 44 48 50 56 59 60 52 44
88 97 100 100 98 99 94 92 89 94 98 88 76 68 62 46 49 52 50 43 40 40 42 42 42 43 47 52 55 55 54 52 51 49 46 50 58 63 60 56 64 55 51
94 99 100 100 100 100 100 100 99 86 65 65 61 48 53 58 51 44 42 45 43 41 39 38 38 39 41 44 48 54 61 66 65 65 62 59 60 68 59 62 62 54 50
93 100 100 100 100 100 96 78 65 64 55 57 54 60 60 52 48 48 49 51 46 40 41 42 42 40 42 44 46 47 56 60 70 79 74 68 69 65 63 56 55 56 49
93 92 93 92 83 69 61 56 58 60 63 63 58 54 52 47 45 48 49 58 53 52 51 50 50 50 50 50 53 57 58 57 66 79 84 74 64 62 66 67 69 57 52
80 73 67 62 58 58 59 62 71 65 58 55 48 44 44 46 52 59 64 66 68 68 64 60 58 59 60 61 70 71 71 79 74 62 65 70 74 74 69 69 72 69 72
58 56 56 56 54 59 66 63 56 52 44 40 42 46 53 58 61 70 69 74 71 69 62 57 56 57 57 60 77 90 98 89 86 94 75 78 79 76 68 68 72 75 66
51 50 54 58 60 57 53 50 45 43 46 61 75 79 61 54 62 66 66 67 67 71 71 69 67 65 66 71 76 90 98 96 93 98 98 78 95 91 70 74 80 74 73
55 54 52 51 48 50 47 48 48 47 54 57 80 74 63 66 63 64 69 77 81 84 80 82 77 80 78 80 85 86 89 92 100 100 99 99 90 80 73 73 90 83 74
51 52 52 51 46 43 42 42 39 34 43 54 60 61 63 67 58 67 72 74 80 86 86 87 86 85 84 92 91 91 91 100 99 100 98 93 88 94 88 96 92 86 80
51 51 47 42 38 33 29 34 40 49 53 51 54 65 70 65 59 77 77 76 80 81 81 82 70 83 87 82 90 95 99 100 100 97 89 84 88 99 98 91 97 98 96
46 41 40 38 40 40 43 54 55 73 72 73 72 72 77 77 79 92 89 85 88 90 91 88 84 85 86 84 91 87 93 99 98 94 86 79 78 74 84 93 99 95 97
37 40 49 49 48 43 42 69 58 54 50 53 65 74 89 92 96 93 91 92 92 88 83 69 79 92 91 88 87 93 99 98 97 96 91 88 85 83 76 93 95 96 90
46 53 54 51 46 47 48 49 47 88 70 70 73 73 81 94 92 92 89 88 84 73 64 63 72 85 91 90 87 90 89 89 98 98 98 100 95 88 84 91 95 95 91
52 50 51 56 55 57 55 60 57 60 68 65 84 73 74 85 90 90 84 84 65 64 63 63 66 75 81 82 88 93 93 93 95 98 99 98 98 99 93 96 92 90 90
54 62 69 71 73 65 67 65 64 65 65 64 61 62 69 81 81 83 83 76 78 70 67 68 71 75 82 86 88 93 95 95 96 97 97 98 98 96 99 97 97 86 86
56 46 62 62 63 62 64 64 62 65 65 64 64 64 73 82 80 75 74 82 84 81 79 79 79 83 87 89 90 93 93 93 95 96 96 97 97 98 98 98 97 94 82
49 60 53 59 62 66 69 70 68 67 68 67 66 73 91 84 82 78 78 82 87 85 87 88 84 91 88 85 90 90 91 92 95 96 97 96 95 98 98 98 98 95 87
67 65 67 72 72 74 77 74 71 72 71 70 70 72 82 85 84 82 78 87 92 87 90 87 87 86 85 88 91 91 91 92 93 95 96 96 96 96 97 98 98 98 91
77 82 77 69 78 79 77 76 76 78 76 76 76 77 81 84 90 83 85 90 90 92 91 94 93 92 90 92 96 94 93 93 94 98 97 96 96 96 96 97 98 98 96
81 82 76 73 78 85 82 82 81 81 80 78 82 86 86 88 88 87 87 92 91 90 93 94 96 95 93 94 95 96 95 95 95 94 100 100 97 95 96 97 98 98 98
84 83 80 81 81 82 82 81 82 82 85 85 87 87 85 85 83 83 85 90 93 90 93 97 93 96 97 98 99 97 98 100 100 100 100 100 100 99 98 97 97 97 97
83 81 82 84 83 84 84 85 84 86 87 87 87 86 87 86 85 86 88 90 90 95 96 97 97 99 100 98 98 100 99 100 100 100 100 100 100 100 98 97 97 97 97

GFSGL_925_rhum_081.txt.gz
RH
59 65 78 80 74 73 76 87 88 86 91 90 86 82 79 82 86 93 92 91 92 84 79 81 68 57 54 54 54 54 53 51 64 59 55 51 50 48 46 45 44 47 53
62 66 78 79 82 75 84 89 90 92 92 89 87 84 83 88 95 92 84 91 80 80 78 65 58 54 55 56 56 55 56 54 54 62 60 57 54 49 48 49 49 50 49
57 57 66 82 85 97 91 96 95 93 92 92 86 85 89 95 87 85 88 85 79 72 64 59 56 54 51 49 48 49 50 51 54 62 64 58 54 51 49 48 48 50 51
60 63 80 91 90 96 91 94 97 98 95 92 90 93 91 87 86 90 86 76 65 64 62 53 48 45 44 44 45 46 48 52 53 54 57 58 56 54 57 56 55 53 59
72 89 99 96 99 100 100 98 99 97 95 94 95 92 89 89 88 87 68 68 69 49 44 41 41 41 41 41 42 41 45 48 49 54 66 68 69 67 64 63 63 63 67
100 100 100 100 100 100 100 100 100 100 96 88 88 91 96 88 75 70 66 56 50 45 40 30 30 37 40 45 53 62 65 67 71 79 79 81 77 76 77 76 73 89 97
100 100 100 100 100 100 99 100 100 99 92 89 92 95 76 65 66 58 49 46 46 44 38 38 48 61 66 66 63 62 60 58 57 67 79 87 88 86 90 98 98 85 82
99 98 99 99 99 100 100 100 100 97 91 89 75 64 65 68 56 50 50 49 50 57 65 71 73 69 64 61 60 58 59 59 64 62 71 73 73 85 82 92 92 90 77
100 100 100 100 100 99 100 99 95 84 69 59 63 63 57 56 52 51 54 60 67 70 70 67 63 65 56 55 71 82 86 85 74 71 78 82 81 78 82 96 99 92 84
100 100 99 99 97 94 93 82 69 60 62 60 57 54 53 58 62 62 62 62 61 59 56 55 52 60 73 82 83 74 86 74 69 82 95 98 91 82 97 98 100 98 96
92 93 91 83 76 69 68 62 65 68 62 59 62 62 62 61 63 62 62 61 60 62 62 54 46 52 66 56 66 94 97 99 99 98 100 94 95 96 90 99 100 100 95
78 68 64 63 65 63 67 61 53 52 56 64 63 60 69 69 68 67 66 68 67 60 57 53 52 40 43 73 90 89 92 90 99 99 99 95 96 93 90 95 98 100 96
60 61 62 60 61 55 46 48 57 60 62 62 56 65 70 73 73 74 75 72 51 36 44 44 32 39 79 89 75 66 72 92 100 99 98 98 89 96 97 96 100 100 99
57 52 50 48 45 48 44 43 46 54 58 60 61 69 76 85 83 76 73 55 35 36 45 41 48 72 95 73 64 64 87 90 95 98 99 100 98 97 99 100 100 100 100
51 45 43 40 41 47 51 55 54 60 57 60 69 73 79 84 84 80 61 61 75 82 84 75 73 84 80 82 79 83 85 94 95 96 99 99 97 98 99 92 100 100 98
57 51 47 51 51 46 46 51 47 44 48 47 39 37 42 49 56 58 62 73 86 86 89 86 81 79 83 86 91 94 89 94 94 95 98 98 99 97 98 98 98 99 97
57 54 52 50 52 70 84 76 70 83 90 85 82 72 69 70 73 81 90 85 81 88 77 78 83 87 87 90 91 92 95 96 93 100 97 99 99 98 97 97 100 99 99
79 82 90 94 91 88 92 95 92 88 87 81 80 78 80 89 85 88 78 78 87 89 73 87 92 88 91 97 94 95 88 93 96 97 96 100 100 99 98 96 98 98 99
96 96 96 96 95 94 91 88 83 84 79 72 69 77 97 96 93 82 57 74 99 96 96 94 85 92 95 92 95 95 96 98 95 95 87 100 100 100 98 97 97 97 99
96 96 95 94 86 84 90 91 82 76 75 76 74 81 87 86 79 69 69 96 95 98 96 92 86 97 96 96 93 96 90 92 100 89 94 98 100 100 100 98 97 97 97
95 84 83 85 94 83 84 84 74 78 77 82 88 92 91 90 96 98 99 96 96 92 90 98 98 89 84 90 97 94 85 86 90 92 100 100 100 100 100 100 98 98 97
74 78 77 75 79 81 75 82 92 89 87 92 85 83 84 85 97 98 97 96 93 91 100 99 94 85 83 100 97 82 84 96 99 98 89 90 98 100 100 100 100 98 98
83 82 76 78 84 86 78 91 92 76 85 95 97 93 94 97 93 92 97 99 100 99 99 96 95 97 94 86 80 93 100 99 89 90 100 100 100 98 100 100 100 98 98
86 88 89 89 91 92 92 95 96 97 96 96 95 99 96 84 85 99 100 96 94 91 93 100 98 90 86 98 100 94 86 89 98 100 95 96 100 100 100 100 100 99 98
88 90 84 88 94 95 92 92 95 92 87 96 96 90 83 88 92 92 92 88 84 97 98 91 85 82 88 87 88 93 98 96 98 96 99 100 100 99 100 100 100 99 98
90 89 92 92 97 98 94 84 89 97 99 98 96 96 100 100 99 91 85 97 100 97 90 81 78 84 92 94 94 98 98 98 100 99 100 100 100 100 100 100 100 100 98

GFSGL_925_rhum_084.txt.gz
RH
61 69 78 81 78 77 75 74 78 82 93 98 94 93 93 88 79 75 80 84 82 89 82 82 87 73 74 65 60 56 58 57 71 62 58 55 55 54 53 53 51 48 48
64 64 73 81 82 84 87 92 96 100 100 94 91 92 92 84 78 77 82 84 92 82 87 87 78 74 71 62 58 59 61 59 66 72 65 61 58 56 54 52 47 49 49
67 68 69 76 83 89 99 100 90 85 99 97 92 91 88 83 81 78 87 90 87 92 84 82 73 67 61 59 58 52 50 49 50 60 63 61 60 59 57 55 52 51 51
68 68 72 78 85 94 100 100 96 94 99 98 95 92 90 91 88 98 96 92 95 94 82 75 68 62 54 49 48 47 45 44 46 55 62 63 64 64 66 64 61 59 59
72 74 74 85 98 99 100 95 94 100 100 95 99 100 100 100 100 98 96 96 93 84 80 63 50 45 44 44 45 46 51 59 64 69 74 76 78 75 75 72 72 69 69
77 81 86 99 100 100 100 100 100 100 100 100 100 100 100 100 96 98 94 82 80 78 51 44 39 37 39 50 61 64 64 62 62 67 69 75 76 76 81 89 89 99 92
94 99 100 100 100 99 99 99 100 100 100 100 100 100 100 100 99 92 84 78 54 47 43 39 43 54 60 65 66 64 62 60 62 70 71 72 75 76 81 90 94 90 90
100 99 98 99 100 100 100 100 100 100 100 100 99 98 100 91 85 81 71 51 50 53 58 63 66 69 69 65 62 60 56 54 59 66 69 69 69 76 87 89 98 99 99
100 100 100 100 100 100 100 100 100 100 97 94 98 93 79 82 83 56 51 53 59 66 68 67 61 53 46 47 60 66 56 47 59 78 84 85 88 87 93 99 98 87 90
100 99 99 100 99 100 100 100 100 98 92 75 77 78 78 70 62 58 60 62 62 61 54 49 49 43 39 46 60 70 99 98 93 92 92 85 93 98 99 100 99 97 89
99 99 100 100 99 99 99 98 92 77 71 72 72 73 69 63 65 63 62 60 57 56 59 51 32 32 32 38 66 96 96 82 86 84 91 88 88 80 92 91 94 92 99
96 96 95 90 84 87 81 75 74 73 69 72 71 73 72 71 68 69 66 67 67 60 47 34 30 26 35 66 91 79 64 64 73 88 94 99 93 86 97 95 93 98 96
74 69 71 70 73 77 77 78 82 77 72 79 76 82 87 82 80 76 73 72 64 42 34 39 36 47 78 94 75 67 62 68 81 91 99 97 100 94 82 92 97 100 100
61 60 62 65 62 66 69 72 75 73 68 75 96 94 90 88 86 82 79 64 42 43 56 48 55 75 94 83 75 75 77 78 86 95 92 99 93 98 99 100 98 100 98
55 56 59 60 58 59 59 62 76 87 81 83 86 84 88 94 96 86 59 67 76 84 84 80 79 88 84 84 85 91 83 87 92 90 99 92 97 98 99 97 100 99 97
65 70 69 63 67 74 76 76 60 53 57 60 60 52 50 55 59 66 74 78 81 88 88 91 90 88 87 90 91 93 89 89 93 94 91 96 100 100 99 98 97 99 96
86 97 96 96 97 96 97 96 96 97 97 96 96 93 80 73 83 93 92 94 88 84 86 83 90 88 87 92 94 95 99 99 96 93 94 84 100 100 100 100 98 97 95
97 98 97 97 97 97 97 97 96 97 96 95 95 96 96 96 95 95 91 77 75 90 96 97 95 95 97 98 98 99 97 88 87 96 83 81 98 100 100 100 99 99 96
96 96 96 96 96 96 96 95 95 96 96 97 93 88 98 97 96 92 74 85 97 98 97 96 94 98 97 94 91 93 92 85 84 87 81 94 100 100 100 100 100 100 97
96 96 95 96 96 96 96 96 95 91 93 95 94 96 96 94 94 95 98 97 94 95 93 93 95 95 91 84 88 98 92 83 80 93 98 98 82 96 100 100 100 100 98
94 93 93 92 93 92 85 84 87 88 91 96 92 94 95 93 98 98 97 97 97 96 98 99 98 96 92 92 100 97 86 80 88 100 92 87 98 100 100 100 100 100 100
82 79 82 85 85 82 79 95 92 87 92 94 97 98 97 96 95 94 97 97 98 98 98 98 98 100 100 100 91 89 95 99 100 91 92 97 100 100 100 100 100 100 100
83 84 88 92 92 92 93 96 96 96 96 95 95 95 94 91 87 96 99 98 98 96 95 98 100 99 92 86 90 100 99 92 92 99 100 100 100 100 98 100 100 100 100
86 84 88 94 95 95 96 98 98 94 93 96 97 97 94 90 94 96 95 92 85 89 100 100 95 87 79 75 80 88 90 99 100 100 100 100 100 100 100 100 100 100 100
83 84 87 95 97 96 92 92 94 96 98 98 98 99 100 100 100 97 90 90 100 99 93 85 76 76 80 90 94 95 99 100 100 99 100 100 100 100 100 100 100 100 100
88 92 96 93 94 97 98 96 94 94 97 97 100 100 100 100 100 100 100 99 93 86 81 80 81 86 90 93 93 97 96 93 94 96 99 100 100 100 100 100 100 100 100

GFSGL_925_rhum_087.txt.gz
RH
74 78 82 85 88 91 94 92 87 90 89 86 85 90 94 99 97 93 80 74 76 79 88 86 86 88 76 68 81 73 73 68 78 66 61 59 59 57 55 53 53 53 52
71 74 78 85 89 95 96 97 95 96 94 94 91 98 99 100 98 99 85 83 84 85 89 91 89 83 80 83 72 72 70 64 70 77 67 62 58 54 57 57 54 53 53
72 75 74 76 88 92 95 97 95 96 100 100 98 99 98 100 100 99 91 87 86 89 91 94 84 93 86 77 79 70 66 65 64 72 69 64 63 55 53 56 57 58 60
78 77 77 74 80 84 91 99 100 100 96 78 90 99 100 100 100 100 97 94 96 96 94 87 92 85 82 81 69 61 54 51 50 54 63 66 67 65 66 68 66 63 65
76 75 75 76 86 89 91 94 100 97 90 68 91 100 100 100 100 100 98 99 100 97 99 94 90 87 81 57 49 46 46 49 56 67 72 72 70 69 68 67 72 72 80
80 82 82 84 88 98 100 100 100 99 99 100 100 99 100 100 100 100 100 100 99 100 98 93 76 54 47 47 47 50 56 61 63 66 68 73 71 66 63 66 81 94 88
82 90 99 99 100 100 99 99 100 100 100 99 100 100 100 100 100 100 100 100 99 92 92 73 57 54 55 58 62 63 65 65 65 68 73 71 74 70 72 80 88 95 97
100 100 100 100 100 100 100 100 100 100 100 100 100 100 100 100 100 100 95 92 92 77 60 54 59 65 67 68 66 63 56 51 47 46 57 68 76 79 85 90 98 100 98
100 100 100 100 100 100 100 100 100 100 100 100 100 99 99 99 100 100 97 73 62 66 67 70 79 68 60 53 45 44 44 43 65 79 85 84 82 86 94 100 99 98 89
100 100 100 100 100 100 100 100 100 100 99 100 100 100 100 100 96 85 74 70 72 75 67 61 52 43 34 38 40 54 86 98 88 84 77 72 80 81 80 82 91 100 96
100 100 100 100 100 100 100 100 99 100 99 98 94 94 91 87 90 92 98 93 83 75 60 55 38 27 23 26 53 95 97 83 68 64 68 72 85 80 87 89 96 99 98
99 99 98 94 97 99 98 97 94 88 90 96 93 93 97 98 98 98 98 94 69 59 53 42 32 29 43 60 91 86 72 63 60 65 82 95 90 96 92 77 79 96 99
78 76 78 83 84 87 87 86 82 84 91 96 94 98 97 97 97 97 96 81 61 47 40 36 36 44 59 91 82 79 73 67 68 81 94 90 99 86 87 89 95 85 83
74 74 76 80 84 87 89 89 87 90 93 93 98 97 97 97 97 96 86 67 51 52 69 67 70 74 95 89 80 79 75 74 82 92 91 97 84 94 92 94 100 96 100
72 76 76 75 79 85 92 95 97 99 98 98 98 98 97 97 97 96 92 91 87 82 82 86 88 87 84 87 86 88 86 91 96 86 94 87 92 96 99 100 99 100 99
84 90 91 91 94 97 98 97 97 97 96 96 88 86 68 80 88 95 96 96 96 95 83 83 85 84 86 93 95 96 96 96 98 97 92 88 83 99 100 99 96 100 100
100 100 98 99 99 98 98 97 97 97 97 97 97 96 96 96 96 96 96 95 95 95 96 96 95 95 95 95 96 99 98 96 91 84 92 82 80 98 100 100 99 100 99
97 97 96 97 97 96 96 96 96 96 96 96 96 96 97 96 96 95 95 94 94 94 96 96 96 96 97 98 99 95 94 90 84 82 80 81 96 98 94 99 100 100 100
96 98 97 96 96 96 96 95 95 95 95 95 95 95 96 97 96 95 94 94 96 96 96 96 96 97 97 95 90 92 99 94 87 83 93 96 98 88 100 100 100 100 100
95 96 95 97 94 90 86 89 92 92 96 95 95 97 95 91 93 95 96 96 96 96 97 98 99 98 96 92 92 99 100 92 85 87 100 96 98 99 97 98 100 100 100
92 84 81 81 79 83 94 94 91 92 95 98 100 100 98 95 97 96 96 95 95 96 99 100 99 93 93 100 99 98 94 94 98 100 100 91 98 99 95 100 100 100 100
82 88 90 94 91 92 95 94 94 93 94 94 94 94 93 89 87 89 93 94 96 96 94 96 100 100 100 100 98 95 99 100 98 95 95 99 100 100 96 100 100 100 100
79 83 89 92 94 92 93 95 94 94 98 97 98 98 95 94 95 98 100 98 92 90 96 100 100 99 94 88 78 81 93 94 98 100 100 100 100 97 98 100 100 100 100
77 82 87 90 88 89 89 91 90 93 97 99 99 99 100 100 100 100 99 98 100 100 100 97 88 79 76 78 84 94 100 100 100 100 100 100 100 100 100 100 100 100 100
82 89 90 92 94 94 90 87 86 87 89 96 100 100 100 97 96 98 100 100 96 90 87 84 84 83 84 91 96 98 100 100 100 100 100 100 100 99 99 100 100 100 100
83 84 89 90 92 90 90 91 95 97 98 99 99 98 99 98 98 97 94 94 99 99 99 92 84 82 88 94 96 99 100 98 99 99 100 100 100 100 100 100 100 100 100

GFSGL_925_rhum_093.txt.gz
RH
92 93 92 90 90 87 83 80 80 81 82 80 80 76 67 72 65 76 85 94 99 99 100 100 98 99 97 96 90 83 95 83 79 72 65 63 53 52 53 54 56 58 62
88 89 91 92 92 90 88 83 79 76 78 77 80 86 90 85 84 89 96 100 100 100 99 100 98 100 100 100 99 96 92 86 78 76 74 64 60 59 59 63 64 58 63
86 87 85 91 90 84 84 82 77 70 74 77 83 85 79 76 75 92 100 100 100 100 100 99 91 92 100 100 100 100 99 93 83 87 81 72 69 70 69 63 59 57 52
81 80 79 78 81 81 78 81 80 78 83 85 88 88 91 99 100 100 100 100 100 100 100 100 100 100 100 100 100 100 100 100 98 91 87 86 80 80 74 64 66 66 64
80 80 77 77 81 85 86 85 89 92 93 96 98 100 100 100 100 100 100 100 100 100 100 100 100 100 100 100 100 100 100 100 100 99 91 85 85 81 76 67 66 60 57
81 81 79 80 84 88 90 92 96 98 100 99 99 100 100 99 99 100 100 100 100 100 100 100 100 100 100 100 100 100 100 98 99 92 99 98 99 96 80 72 64 59 47
80 80 81 81 80 82 88 93 95 98 99 99 99 100 100 100 100 100 100 100 100 100 100 100 100 99 99 99 100 100 97 95 96 99 99 99 99 89 72 66 65 62 59
88 95 93 90 90 90 91 97 100 100 100 100 100 100 100 100 99 99 100 100 100 100 100 100 100 100 100 97 98 98 98 99 99 98 96 90 84 89 94 87 83 84 81
100 99 99 100 100 100 100 100 100 100 100 100 100 100 100 100 100 100 100 100 100 100 100 100 100 100 100 100 98 97 97 96 88 88 92 93 93 92 92 95 88 77 74
100 100 100 100 100 100 100 100 100 100 99 100 100 100 100 99 100 100 100 100 98 98 97 97 97 96 96 91 86 76 90 98 91 91 90 65 50 84 60 87 96 89 74
100 100 100 100 100 100 100 100 100 100 100 100 100 100 100 100 99 96 96 93 95 96 96 96 96 96 96 93 84 88 96 94 93 91 93 88 94 88 92 99 99 98 88
100 100 100 100 100 100 99 100 100 100 100 100 100 100 100 100 98 98 96 97 98 97 96 96 96 86 64 87 93 92 95 95 96 94 88 94 97 98 98 95 94 97 94
95 97 98 98 100 100 99 100 99 99 99 100 98 99 100 98 97 97 96 96 96 96 96 95 95 95 96 97 96 96 96 98 99 97 95 96 98 99 98 95 89 85 84
93 96 99 100 100 99 99 100 100 100 100 100 100 99 97 96 96 96 97 97 96 98 97 97 95 95 96 96 96 97 98 100 99 96 95 96 97 96 91 84 79 77 77
93 96 98 100 100 100 100 100 100 100 97 100 100 100 99 98 100 98 100 100 100 98 98 98 96 94 96 98 99 100 100 100 96 97 95 94 91 84 77 75 77 75 72
98 99 100 100 99 99 100 100 100 100 100 99 98 100 100 98 99 100 100 100 100 99 90 86 86 89 87 86 89 92 93 92 91 89 87 83 81 79 77 76 75 76 73
96 97 99 99 96 95 93 91 94 100 100 100 100 100 100 100 100 98 98 98 98 88 85 88 90 91 90 89 90 89 88 91 92 85 84 83 83 82 83 79 76 75 73
100 100 99 97 95 95 95 94 92 92 92 98 100 100 100 100 100 99 92 84 81 82 82 83 86 88 86 84 86 87 88 88 90 90 88 86 88 87 84 80 78 80 80
94 95 96 97 96 93 91 89 88 89 90 90 89 94 91 94 96 97 93 87 84 83 82 81 85 88 89 89 91 95 97 94 98 98 93 93 92 90 86 84 84 86 87
90 95 87 87 87 87 88 87 88 88 88 90 91 93 86 84 88 92 97 98 92 90 91 86 86 89 93 92 93 92 93 92 91 90 90 92 90 91 90 88 86 85 82
83 92 93 87 86 86 86 85 86 87 86 88 96 99 83 90 93 96 98 100 100 100 100 100 100 100 97 95 94 96 97 99 96 95 96 93 94 95 92 90 89 87 86
89 88 88 89 90 91 89 90 92 91 91 89 92 99 91 100 98 99 100 100 100 100 100 100 100 100 100 100 100 100 100 100 100 100 100 100 96 93 92 91 91 90 90
90 89 87 89 89 91 92 91 93 93 97 100 99 100 100 100 100 100 100 100 100 100 100 100 100 100 100 100 100 100 100 100 100 100 100 100 97 95 95 94 91 90 89
93 90 85 94 94 94 96 97 97 98 99 100 100 100 100 100 100 100 100 100 100 100 100 100 100 100 100 100 100 100 100 100 100 100 100 100 100 100 98 96 94 94 95
84 90 94 94 95 98 99 100 100 99 98 99 100 100 100 100 100 100 100 100 100 100 100 100 100 100 100 85 91 97 100 100 100 100 100 100 100 100 100 100 100 98 96
86 87 96 98 100 100 98 96 97 99 100 100 100 100 100 100 100 100 100 100 100 100 100 100 100 97 96 97 99 100 100 100 100 100 100 100 100 100 100 100 100 99 96